Observation data for Odell on 06/20/2019      Previous  Date  Next       Current Mesonet Observations  Soil Data  Daily Summary Page  Observations in Plain Language
KOD1 200500Z 13006KT 24/20 A2975 RMK A01 T02390196  RH  077%=      5-min Rain = 0
KOD1 200501Z 14006KT 24/20 A2975 RMK A01 T02390196  RH  077%=      5-min Rain = 0
KOD1 200502Z 14006KT 24/20 A2975 RMK A01 T02390196  RH  077%=      5-min Rain = 0
KOD1 200503Z 15005KT 24/20 A2975 RMK A01 T02380196  RH  077%=      5-min Rain = 0
KOD1 200504Z 15004KT 24/20 A2975 RMK A01 T02370197  RH  078%=      5-min Rain = 0
KOD1 200505Z 15005KT 24/20 A2975 RMK A01 T02370197  RH  078%=      5-min Rain = 0
KOD1 200506Z 15005KT 24/20 A2975 RMK A01 T02350197  RH  079%=      5-min Rain = 0
KOD1 200507Z 14005KT 23/20 A2975 RMK A01 T02340197  RH  080%=      5-min Rain = 0
KOD1 200508Z 15005KT 23/20 A2975 RMK A01 T02330197  RH  080%=      5-min Rain = 0
KOD1 200509Z 15005KT 23/20 A2975 RMK A01 T02320197  RH  081%=      5-min Rain = 0
KOD1 200510Z 15006KT 23/20 A2975 RMK A01 T02310197  RH  081%=      5-min Rain = 0
KOD1 200511Z 15005KT 23/20 A2975 RMK A01 T02310197  RH  081%=      5-min Rain = 0
KOD1 200512Z 15006KT 23/20 A2975 RMK A01 T02310197  RH  081%=      5-min Rain = 0
KOD1 200513Z 15006KT 23/20 A2975 RMK A01 T02310197  RH  081%=      5-min Rain = 0
KOD1 200514Z 15007KT 23/20 A2975 RMK A01 T02310197  RH  081%=      5-min Rain = 0
KOD1 200515Z 15007KT 23/20 A2975 RMK A01 T02310197  RH  081%=      5-min Rain = 0
KOD1 200516Z 15006KT 23/20 A2975 RMK A01 T02310197  RH  081%=      5-min Rain = 0
KOD1 200517Z 15006KT 23/20 A2975 RMK A01 T02310197  RH  081%=      5-min Rain = 0
KOD1 200518Z 15006KT 23/20 A2975 RMK A01 T02310197  RH  081%=      5-min Rain = 0
KOD1 200519Z 15006KT 23/20 A2975 RMK A01 T02310197  RH  081%=      5-min Rain = 0
KOD1 200520Z 15006KT 23/20 A2975 RMK A01 T02320197  RH  081%=      5-min Rain = 0
KOD1 200521Z 15007KT 23/20 A2975 RMK A01 T02320197  RH  080%=      5-min Rain = 0
KOD1 200522Z 15006KT 23/20 A2975 RMK A01 T02320196  RH  080%=      5-min Rain = 0
KOD1 200523Z 15006KT 23/20 A2975 RMK A01 T02320196  RH  080%=      5-min Rain = 0
KOD1 200524Z 15006KT 23/20 A2975 RMK A01 T02330197  RH  080%=      5-min Rain = 0
KOD1 200525Z 15006KT 23/20 A2975 RMK A01 T02330197  RH  080%=      5-min Rain = 0
KOD1 200526Z 15006KT 23/20 A2975 RMK A01 T02320197  RH  081%=      5-min Rain = 0
KOD1 200527Z 14006KT 23/20 A2975 RMK A01 T02320197  RH  080%=      5-min Rain = 0
KOD1 200528Z 14006KT 23/20 A2975 RMK A01 T02330196  RH  080%=      5-min Rain = 0
KOD1 200529Z 14006KT 23/20 A2975 RMK A01 T02340196  RH  079%=      5-min Rain = 0
KOD1 200530Z 13006KT 23/20 A2975 RMK A01 T02340196  RH  079%=      5-min Rain = 0
KOD1 200531Z 13005KT 23/20 A2975 RMK A01 T02340195  RH  079%=      5-min Rain = 0
KOD1 200532Z 13005KT 23/20 A2975 RMK A01 T02340195  RH  079%=      5-min Rain = 0
KOD1 200533Z 13006KT 23/20 A2975 RMK A01 T02340195  RH  079%=      5-min Rain = 0
KOD1 200534Z 14006KT 23/20 A2975 RMK A01 T02340195  RH  079%=      5-min Rain = 0
KOD1 200535Z 14006KT 23/20 A2975 RMK A01 T02340195  RH  079%=      5-min Rain = 0
KOD1 200536Z 14006KT 23/20 A2975 RMK A01 T02340195  RH  079%=      5-min Rain = 0
KOD1 200537Z 14007KT 23/20 A2975 RMK A01 T02330195  RH  079%=      5-min Rain = 0
KOD1 200538Z 14006KT 23/20 A2975 RMK A01 T02330195  RH  079%=      5-min Rain = 0
KOD1 200539Z 15007KT 23/20 A2975 RMK A01 T02330196  RH  080%=      5-min Rain = 0
KOD1 200540Z 15006KT 23/20 A2975 RMK A01 T02320196  RH  080%=      5-min Rain = 0
KOD1 200541Z 15006KT 23/20 A2975 RMK A01 T02320196  RH  080%=      5-min Rain = 0
KOD1 200542Z 15008KT 23/20 A2975 RMK A01 T02310196  RH  081%=      5-min Rain = 0
KOD1 200543Z 15007KT 23/20 A2975 RMK A01 T02300196  RH  081%=      5-min Rain = 0
KOD1 200544Z 15006KT 23/20 A2975 RMK A01 T02310196  RH  081%=      5-min Rain = 0
KOD1 200545Z 15006KT 23/20 A2975 RMK A01 T02310196  RH  081%=      5-min Rain = 0
KOD1 200546Z 15006KT 23/20 A2975 RMK A01 T02310196  RH  081%=      5-min Rain = 0
KOD1 200547Z 15006KT 23/20 A2975 RMK A01 T02320197  RH  081%=      5-min Rain = 0
KOD1 200548Z 14005KT 23/20 A2975 RMK A01 T02320197  RH  081%=      5-min Rain = 0
KOD1 200549Z 14006KT 23/20 A2975 RMK A01 T02320197  RH  081%=      5-min Rain = 0
KOD1 200550Z 14006KT 23/20 A2975 RMK A01 T02320197  RH  081%=      5-min Rain = 0
KOD1 200551Z 14006KT 23/20 A2975 RMK A01 T02320197  RH  081%=      5-min Rain = 0
KOD1 200552Z 14006KT 23/20 A2975 RMK A01 T02320196  RH  081%=      5-min Rain = 0
KOD1 200553Z 14006KT 23/20 A2975 RMK A01 T02320196  RH  080%=      5-min Rain = 0
KOD1 200554Z 13005KT 23/20 A2975 RMK A01 T02320195  RH  080%=      5-min Rain = 0
KOD1 200555Z 13005KT 23/20 A2975 RMK A01 T02320195  RH  080%=      5-min Rain = 0
KOD1 200556Z 13005KT 23/20 A2975 RMK A01 T02320195  RH  079%=      5-min Rain = 0
KOD1 200557Z 13005KT 23/20 A2975 RMK A01 T02320195  RH  079%=      5-min Rain = 0
KOD1 200558Z 14005KT 23/20 A2975 RMK A01 T02320195  RH  079%=      5-min Rain = 0
KOD1 200559Z 14005KT 23/20 A2975 RMK A01 T02320195  RH  079%=      5-min Rain = 0
KOD1 200600Z 14005KT 23/20 A2975 RMK A01 T02320195  RH  079%=      5-min Rain = 0
KOD1 200601Z 14005KT 23/19 A2975 RMK A01 T02320194  RH  079%=      5-min Rain = 0
KOD1 200602Z 15005KT 23/20 A2975 RMK A01 T02310195  RH  080%=      5-min Rain = 0
KOD1 200603Z 15005KT 23/20 A2975 RMK A01 T02300195  RH  081%=      5-min Rain = 0
KOD1 200604Z 15006KT 23/20 A2975 RMK A01 T02290195  RH  081%=      5-min Rain = 0
KOD1 200605Z 15006KT 23/20 A2975 RMK A01 T02290195  RH  081%=      5-min Rain = 0
KOD1 200606Z 15006KT 23/20 A2975 RMK A01 T02280195  RH  081%=      5-min Rain = 0
KOD1 200607Z 14006KT 23/20 A2975 RMK A01 T02280195  RH  081%=      5-min Rain = 0
KOD1 200608Z 14006KT 23/19 A2975 RMK A01 T02280194  RH  081%=      5-min Rain = 0
KOD1 200609Z 14007KT 23/20 A2975 RMK A01 T02290195  RH  081%=      5-min Rain = 0
KOD1 200610Z 13006KT 23/19 A2975 RMK A01 T02290194  RH  081%=      5-min Rain = 0
KOD1 200611Z 13005KT 23/19 A2975 RMK A01 T02300194  RH  081%=      5-min Rain = 0
KOD1 200612Z 14006KT 23/19 A2975 RMK A01 T02300194  RH  080%=      5-min Rain = 0
KOD1 200613Z 14006KT 23/19 A2975 RMK A01 T02300194  RH  080%=      5-min Rain = 0
KOD1 200614Z 15006KT 23/19 A2975 RMK A01 T02300194  RH  080%=      5-min Rain = 0
KOD1 200615Z 15006KT 23/19 A2975 RMK A01 T02290194  RH  081%=      5-min Rain = 0
KOD1 200616Z 15006KT 23/19 A2975 RMK A01 T02290194  RH  081%=      5-min Rain = 0
KOD1 200617Z 16006KT 23/19 A2975 RMK A01 T02290194  RH  081%=      5-min Rain = 0
KOD1 200618Z 15006KT 23/20 A2975 RMK A01 T02280195  RH  082%=      5-min Rain = 0
KOD1 200619Z 15007KT 23/19 A2975 RMK A01 T02260194  RH  082%=      5-min Rain = 0
KOD1 200620Z 15007KT 23/20 A2975 RMK A01 T02260195  RH  082%=      5-min Rain = 0
KOD1 200621Z 15006KT 23/20 A2975 RMK A01 T02260195  RH  082%=      5-min Rain = 0
KOD1 200622Z 15006KT 23/20 A2975 RMK A01 T02260195  RH  082%=      5-min Rain = 0
KOD1 200623Z 16006KT 23/20 A2975 RMK A01 T02260195  RH  083%=      5-min Rain = 0
KOD1 200624Z 16006KT 23/20 A2975 RMK A01 T02260195  RH  083%=      5-min Rain = 0
KOD1 200625Z 16007KT 23/20 A2975 RMK A01 T02260195  RH  083%=      5-min Rain = 0
KOD1 200626Z 16007KT 23/20 A2975 RMK A01 T02260196  RH  083%=      5-min Rain = 0
KOD1 200627Z 16008KT 23/20 A2975 RMK A01 T02250196  RH  083%=      5-min Rain = 0
KOD1 200628Z 16007KT 23/20 A2975 RMK A01 T02250195  RH  083%=      5-min Rain = 0
KOD1 200629Z 16007KT 23/20 A2975 RMK A01 T02250195  RH  083%=      5-min Rain = 0
KOD1 200630Z 16007KT 23/20 A2975 RMK A01 T02250195  RH  083%=      5-min Rain = 0
KOD1 200631Z 15008KT 23/19 A2975 RMK A01 T02260194  RH  083%=      5-min Rain = 0
KOD1 200632Z 15007KT 23/19 A2975 RMK A01 T02260194  RH  082%=      5-min Rain = 0
KOD1 200633Z 16008KT 23/20 A2975 RMK A01 T02260195  RH  082%=      5-min Rain = 0
KOD1 200634Z 16009KT 23/19 A2975 RMK A01 T02260194  RH  082%=      5-min Rain = 0
KOD1 200635Z 16009KT 23/20 A2975 RMK A01 T02270195  RH  082%=      5-min Rain = 0
KOD1 200636Z 15009KT 23/20 A2975 RMK A01 T02270195  RH  082%=      5-min Rain = 0
KOD1 200637Z 16009KT 23/20 A2975 RMK A01 T02280195  RH  082%=      5-min Rain = 0
KOD1 200638Z 16009KT 23/20 A2975 RMK A01 T02280195  RH  082%=      5-min Rain = 0
KOD1 200639Z 16008KT 23/20 A2975 RMK A01 T02280195  RH  082%=      5-min Rain = 0
KOD1 200640Z 16009KT 23/19 A2975 RMK A01 T02280194  RH  082%=      5-min Rain = 0
KOD1 200641Z 16008KT 23/19 A2975 RMK A01 T02280194  RH  081%=      5-min Rain = 0
KOD1 200642Z 15008KT 23/20 A2975 RMK A01 T02280195  RH  081%=      5-min Rain = 0
KOD1 200643Z 15008KT 23/19 A2975 RMK A01 T02280194  RH  081%=      5-min Rain = 0
KOD1 200644Z 16007KT 23/19 A2975 RMK A01 T02280194  RH  081%=      5-min Rain = 0
KOD1 200645Z 16007KT 23/19 A2975 RMK A01 T02290194  RH  081%=      5-min Rain = 0
KOD1 200646Z 16008KT 23/19 A2975 RMK A01 T02290194  RH  081%=      5-min Rain = 0
KOD1 200647Z 16009KT 23/19 A2975 RMK A01 T02290194  RH  081%=      5-min Rain = 0
KOD1 200648Z 16008KT 23/19 A2975 RMK A01 T02290194  RH  080%=      5-min Rain = 0
KOD1 200649Z 15008KT 23/19 A2975 RMK A01 T02290193  RH  080%=      5-min Rain = 0
KOD1 200650Z 15008KT 23/19 A2975 RMK A01 T02300193  RH  080%=      5-min Rain = 0
KOD1 200651Z 16008KT 23/19 A2975 RMK A01 T02300193  RH  080%=      5-min Rain = 0
KOD1 200652Z 16008KT 23/19 A2975 RMK A01 T02300193  RH  080%=      5-min Rain = 0
KOD1 200653Z 16008KT 23/19 A2975 RMK A01 T02300193  RH  080%=      5-min Rain = 0
KOD1 200654Z 16008KT 23/19 A2975 RMK A01 T02300193  RH  080%=      5-min Rain = 0
KOD1 200655Z 16007KT 23/19 A2975 RMK A01 T02300193  RH  080%=      5-min Rain = 0
KOD1 200656Z 17008KT 23/19 A2975 RMK A01 T02290193  RH  080%=      5-min Rain = 0
KOD1 200657Z 17007KT 23/19 A2975 RMK A01 T02280193  RH  080%=      5-min Rain = 0
KOD1 200658Z 17007KT 23/19 A2975 RMK A01 T02280193  RH  081%=      5-min Rain = 0
KOD1 200659Z 17007KT 23/19 A2975 RMK A01 T02280192  RH  080%=      5-min Rain = 0
KOD1 200700Z 17007KT 23/19 A2975 RMK A01 T02280192  RH  080%=      5-min Rain = 0
KOD1 200701Z 17007KT 23/19 A2975 RMK A01 T02280193  RH  081%=      5-min Rain = 0
KOD1 200702Z 16007KT 23/19 A2975 RMK A01 T02270192  RH  081%=      5-min Rain = 0
KOD1 200703Z 16007KT 23/19 A2975 RMK A01 T02270192  RH  081%=      5-min Rain = 0
KOD1 200704Z 16007KT 23/19 A2975 RMK A01 T02260192  RH  081%=      5-min Rain = 0
KOD1 200705Z 16007KT 23/19 A2975 RMK A01 T02260192  RH  081%=      5-min Rain = 0
KOD1 200706Z 16008KT 23/19 A2975 RMK A01 T02260192  RH  081%=      5-min Rain = 0
KOD1 200707Z 16007KT 23/19 A2975 RMK A01 T02260191  RH  081%=      5-min Rain = 0
KOD1 200708Z 16008KT 23/19 A2975 RMK A01 T02260191  RH  080%=      5-min Rain = 0
KOD1 200709Z 16007KT 23/19 A2975 RMK A01 T02270191  RH  080%=      5-min Rain = 0
KOD1 200710Z 16008KT 23/19 A2975 RMK A01 T02270191  RH  080%=      5-min Rain = 0
KOD1 200711Z 15008KT 23/19 A2975 RMK A01 T02280191  RH  080%=      5-min Rain = 0
KOD1 200712Z 15007KT 23/19 A2975 RMK A01 T02280191  RH  080%=      5-min Rain = 0
KOD1 200713Z 16008KT 23/19 A2975 RMK A01 T02290191  RH  079%=      5-min Rain = 0
KOD1 200714Z 15008KT 23/19 A2975 RMK A01 T02290191  RH  079%=      5-min Rain = 0
KOD1 200715Z 15009KT 23/19 A2975 RMK A01 T02300191  RH  079%=      5-min Rain = 0
KOD1 200716Z 15008KT 23/19 A2975 RMK A01 T02310191  RH  078%=      5-min Rain = 0
KOD1 200717Z 15008KT 23/19 A2975 RMK A01 T02310191  RH  078%=      5-min Rain = 0
KOD1 200718Z 15008KT 23/19 A2975 RMK A01 T02320191  RH  078%=      5-min Rain = 0
KOD1 200719Z 15008KT 23/19 A2975 RMK A01 T02320190  RH  077%=      5-min Rain = 0
KOD1 200720Z 15008KT 23/19 A2975 RMK A01 T02330190  RH  077%=      5-min Rain = 0
KOD1 200721Z 15008KT 23/19 A2975 RMK A01 T02330190  RH  077%=      5-min Rain = 0
KOD1 200722Z 15008KT 23/19 A2975 RMK A01 T02340191  RH  077%=      5-min Rain = 0
KOD1 200723Z 15008KT 23/19 A2975 RMK A01 T02330191  RH  077%=      5-min Rain = 0
KOD1 200724Z 15008KT 23/19 A2975 RMK A01 T02320190  RH  077%=      5-min Rain = 0
KOD1 200725Z 15007KT 23/19 A2975 RMK A01 T02320190  RH  077%=      5-min Rain = 0
KOD1 200726Z 15007KT 23/19 A2975 RMK A01 T02320190  RH  077%=      5-min Rain = 0
KOD1 200727Z 15008KT 23/19 A2975 RMK A01 T02320190  RH  077%=      5-min Rain = 0
KOD1 200728Z 15008KT 23/19 A2975 RMK A01 T02310190  RH  078%=      5-min Rain = 0
KOD1 200729Z 16009KT 23/19 A2975 RMK A01 T02310191  RH  078%=      5-min Rain = 0
KOD1 200730Z 16009KT 23/19 A2975 RMK A01 T02300191  RH  079%=      5-min Rain = 0
KOD1 200731Z 16009KT 23/19 A2975 RMK A01 T02290191  RH  079%=      5-min Rain = 0
KOD1 200732Z 16008KT 23/19 A2975 RMK A01 T02290191  RH  079%=      5-min Rain = 0
KOD1 200733Z 16008KT 23/19 A2975 RMK A01 T02280192  RH  080%=      5-min Rain = 0
KOD1 200734Z 16008KT 23/19 A2975 RMK A01 T02280192  RH  080%=      5-min Rain = 0
KOD1 200735Z 16007KT 23/19 A2975 RMK A01 T02270192  RH  080%=      5-min Rain = 0
KOD1 200736Z 16008KT 23/19 A2975 RMK A01 T02270192  RH  081%=      5-min Rain = 0
KOD1 200737Z 17008KT 23/19 A2975 RMK A01 T02260192  RH  081%=      5-min Rain = 0
KOD1 200738Z 17008KT 23/19 A2975 RMK A01 T02260192  RH  081%=      5-min Rain = 0
KOD1 200739Z 17007KT 23/19 A2975 RMK A01 T02260192  RH  081%=      5-min Rain = 0
KOD1 200740Z 17008KT 23/19 A2975 RMK A01 T02250192  RH  082%=      5-min Rain = 0
KOD1 200741Z 17007KT 22/19 A2975 RMK A01 T02240192  RH  082%=      5-min Rain = 0
KOD1 200742Z 17008KT 22/19 A2975 RMK A01 T02240192  RH  082%=      5-min Rain = 0
KOD1 200743Z 17008KT 22/19 A2975 RMK A01 T02240192  RH  082%=      5-min Rain = 0
KOD1 200744Z 17008KT 23/19 A2975 RMK A01 T02250192  RH  082%=      5-min Rain = 0
KOD1 200745Z 17008KT 22/19 A2975 RMK A01 T02240192  RH  082%=      5-min Rain = 0
KOD1 200746Z 17008KT 22/19 A2975 RMK A01 T02240192  RH  082%=      5-min Rain = 0
KOD1 200747Z 17008KT 22/19 A2976 RMK A01 T02240192  RH  082%=      5-min Rain = 0
KOD1 200748Z 17008KT 22/19 A2976 RMK A01 T02230192  RH  082%=      5-min Rain = 0
KOD1 200749Z 17007KT 22/19 A2976 RMK A01 T02230192  RH  082%=      5-min Rain = 0
KOD1 200750Z 17007KT 22/19 A2976 RMK A01 T02230191  RH  082%=      5-min Rain = 0
KOD1 200751Z 17008KT 22/19 A2975 RMK A01 T02230192  RH  082%=      5-min Rain = 0
KOD1 200752Z 16008KT 22/19 A2975 RMK A01 T02230191  RH  082%=      5-min Rain = 0
KOD1 200753Z 16007KT 22/19 A2975 RMK A01 T02240191  RH  082%=      5-min Rain = 0
KOD1 200754Z 17007KT 22/19 A2975 RMK A01 T02240192  RH  082%=      5-min Rain = 0
KOD1 200755Z 16007KT 22/19 A2975 RMK A01 T02230191  RH  082%=      5-min Rain = 0
KOD1 200756Z 16006KT 22/19 A2975 RMK A01 T02230191  RH  082%=      5-min Rain = 0
KOD1 200757Z 17007KT 22/19 A2975 RMK A01 T02220191  RH  083%=      5-min Rain = 0
KOD1 200758Z 17006KT 22/19 A2975 RMK A01 T02210191  RH  083%=      5-min Rain = 0
KOD1 200759Z 17006KT 22/19 A2975 RMK A01 T02210191  RH  083%=      5-min Rain = 0
KOD1 200800Z 17007KT 22/19 A2975 RMK A01 T02210191  RH  083%=      5-min Rain = 0
KOD1 200801Z 17007KT 22/19 A2975 RMK A01 T02200192  RH  084%=      5-min Rain = 0
KOD1 200802Z 17008KT 22/19 A2975 RMK A01 T02200191  RH  084%=      5-min Rain = 0
KOD1 200803Z 17008KT 22/19 A2975 RMK A01 T02210191  RH  084%=      5-min Rain = 0
KOD1 200804Z 17008KT 22/19 A2975 RMK A01 T02200191  RH  083%=      5-min Rain = 0
KOD1 200805Z 17008KT 22/19 A2975 RMK A01 T02210191  RH  083%=      5-min Rain = 0
KOD1 200806Z 17008KT 22/19 A2975 RMK A01 T02210191  RH  083%=      5-min Rain = 0
KOD1 200807Z 17008KT 22/19 A2975 RMK A01 T02210191  RH  083%=      5-min Rain = 0
KOD1 200808Z 17007KT 22/19 A2975 RMK A01 T02210191  RH  083%=      5-min Rain = 0
KOD1 200809Z 17007KT 22/19 A2975 RMK A01 T02220191  RH  083%=      5-min Rain = 0
KOD1 200810Z 16006KT 22/19 A2975 RMK A01 T02220191  RH  083%=      5-min Rain = 0
KOD1 200811Z 16007KT 22/19 A2975 RMK A01 T02210191  RH  083%=      5-min Rain = 0
KOD1 200812Z 16007KT 22/19 A2975 RMK A01 T02210191  RH  083%=      5-min Rain = 0
KOD1 200813Z 17007KT 22/19 A2975 RMK A01 T02210191  RH  083%=      5-min Rain = 0
KOD1 200814Z 17007KT 22/19 A2975 RMK A01 T02210191  RH  083%=      5-min Rain = 0
KOD1 200815Z 16007KT 22/19 A2975 RMK A01 T02210191  RH  083%=      5-min Rain = 0
KOD1 200816Z 16007KT 22/19 A2975 RMK A01 T02210191  RH  083%=      5-min Rain = 0
KOD1 200817Z 16008KT 22/19 A2975 RMK A01 T02210191  RH  083%=      5-min Rain = 0
KOD1 200818Z 16009KT 22/19 A2975 RMK A01 T02220191  RH  083%=      5-min Rain = 0
KOD1 200819Z 16009KT 22/19 A2975 RMK A01 T02240191  RH  082%=      5-min Rain = 0
KOD1 200820Z 16009KT 22/19 A2975 RMK A01 T02240192  RH  082%=      5-min Rain = 0
KOD1 200821Z 16009KT 22/19 A2975 RMK A01 T02240191  RH  082%=      5-min Rain = 0
KOD1 200822Z 16008KT 23/19 A2975 RMK A01 T02250192  RH  082%=      5-min Rain = 0
KOD1 200823Z 16008KT 23/19 A2976 RMK A01 T02250192  RH  082%=      5-min Rain = 0
KOD1 200824Z 16009KT 23/19 A2976 RMK A01 T02250192  RH  081%=      5-min Rain = 0
KOD1 200825Z 16008KT 23/19 A2976 RMK A01 T02250192  RH  081%=      5-min Rain = 0
KOD1 200826Z 16008KT 23/19 A2976 RMK A01 T02250191  RH  081%=      5-min Rain = 0
KOD1 200827Z 16009KT 23/19 A2976 RMK A01 T02260191  RH  081%=      5-min Rain = 0
KOD1 200828Z 16007KT 23/19 A2976 RMK A01 T02270191  RH  080%=      5-min Rain = 0
KOD1 200829Z 16007KT 23/19 A2976 RMK A01 T02270191  RH  080%=      5-min Rain = 0
KOD1 200830Z 16008KT 23/19 A2976 RMK A01 T02270192  RH  081%=      5-min Rain = 0
KOD1 200831Z 16008KT 23/19 A2976 RMK A01 T02260191  RH  081%=      5-min Rain = 0
KOD1 200832Z 16008KT 23/19 A2976 RMK A01 T02260191  RH  081%=      5-min Rain = 0
KOD1 200833Z 16008KT 23/19 A2976 RMK A01 T02260191  RH  081%=      5-min Rain = 0
KOD1 200834Z 16008KT 23/19 A2976 RMK A01 T02260191  RH  081%=      5-min Rain = 0
KOD1 200835Z 16008KT 23/19 A2976 RMK A01 T02260192  RH  081%=      5-min Rain = 0
KOD1 200836Z 16008KT 23/19 A2976 RMK A01 T02260191  RH  081%=      5-min Rain = 0
KOD1 200837Z 16008KT 23/19 A2976 RMK A01 T02260191  RH  081%=      5-min Rain = 0
KOD1 200838Z 16008KT 23/19 A2976 RMK A01 T02260191  RH  081%=      5-min Rain = 0
KOD1 200839Z 16007KT 23/19 A2976 RMK A01 T02260191  RH  080%=      5-min Rain = 0
KOD1 200840Z 16008KT 23/19 A2976 RMK A01 T02260191  RH  081%=      5-min Rain = 0
KOD1 200841Z 16008KT 23/19 A2976 RMK A01 T02260191  RH  081%=      5-min Rain = 0
KOD1 200842Z 16008KT 23/19 A2976 RMK A01 T02260192  RH  081%=      5-min Rain = 0
KOD1 200843Z 16008KT 23/19 A2976 RMK A01 T02260192  RH  081%=      5-min Rain = 0
KOD1 200844Z 16007KT 23/19 A2976 RMK A01 T02270192  RH  081%=      5-min Rain = 0
KOD1 200845Z 16007KT 23/19 A2976 RMK A01 T02260192  RH  081%=      5-min Rain = 0
KOD1 200846Z 15007KT 23/19 A2976 RMK A01 T02260192  RH  081%=      5-min Rain = 0
KOD1 200847Z 15007KT 23/19 A2976 RMK A01 T02260192  RH  081%=      5-min Rain = 0
KOD1 200848Z 15008KT 23/19 A2976 RMK A01 T02260192  RH  081%=      5-min Rain = 0
KOD1 200849Z 15008KT 23/19 A2976 RMK A01 T02270192  RH  080%=      5-min Rain = 0
KOD1 200850Z 15008KT 23/19 A2976 RMK A01 T02270191  RH  080%=      5-min Rain = 0
KOD1 200851Z 15008KT 23/19 A2976 RMK A01 T02280191  RH  080%=      5-min Rain = 0
KOD1 200852Z 15006KT 23/19 A2976 RMK A01 T02280191  RH  080%=      5-min Rain = 0
KOD1 200853Z 15007KT 23/19 A2976 RMK A01 T02270192  RH  080%=      5-min Rain = 0
KOD1 200854Z 16009KT 23/19 A2976 RMK A01 T02270192  RH  081%=      5-min Rain = 0
KOD1 200855Z 16010KT 23/19 A2977 RMK A01 T02260192  RH  081%=      5-min Rain = 0
KOD1 200856Z 17010KT 23/19 A2977 RMK A01 T02250192  RH  082%=      5-min Rain = 0
KOD1 200857Z 16010KT 23/19 A2977 RMK A01 T02250192  RH  081%=      5-min Rain = 0
KOD1 200858Z 16010KT 23/19 A2977 RMK A01 T02260191  RH  081%=      5-min Rain = 0
KOD1 200859Z 16010KT 23/19 A2977 RMK A01 T02270191  RH  080%=      5-min Rain = 0
KOD1 200900Z 16011KT 23/19 A2977 RMK A01 T02280191  RH  079%=      5-min Rain = 0
KOD1 200901Z 16011KT 23/19 A2977 RMK A01 T02300190  RH  078%=      5-min Rain = 0
KOD1 200902Z 17010G15KT 23/19 A2977 RMK A01 T02320190  RH  077%=      5-min Rain = 0
KOD1 200903Z 17008KT 23/19 A2977 RMK A01 T02330190  RH  077%=      5-min Rain = 0
KOD1 200904Z 17010KT 23/19 A2977 RMK A01 T02320190  RH  077%=      5-min Rain = 0
KOD1 200905Z 16010KT 23/19 A2977 RMK A01 T02320190  RH  077%=      5-min Rain = 0
KOD1 200906Z 17010KT 23/19 A2977 RMK A01 T02320190  RH  077%=      5-min Rain = 0
KOD1 200907Z 17008KT 23/19 A2977 RMK A01 T02310191  RH  078%=      5-min Rain = 0
KOD1 200908Z 17008KT 23/19 A2977 RMK A01 T02300191  RH  079%=      5-min Rain = 0
KOD1 200909Z 17008KT 23/19 A2977 RMK A01 T02280192  RH  080%=      5-min Rain = 0
KOD1 200910Z 17007KT 23/19 A2977 RMK A01 T02270191  RH  080%=      5-min Rain = 0
KOD1 200911Z 17007KT 23/19 A2977 RMK A01 T02270192  RH  080%=      5-min Rain = 0
KOD1 200912Z 17007KT 23/19 A2977 RMK A01 T02270192  RH  081%=      5-min Rain = 0
KOD1 200913Z 17008KT 23/19 A2977 RMK A01 T02260192  RH  081%=      5-min Rain = 0
KOD1 200914Z 17008KT 23/19 A2977 RMK A01 T02260192  RH  081%=      5-min Rain = 0
KOD1 200915Z 17007KT 23/19 A2977 RMK A01 T02260192  RH  081%=      5-min Rain = 0
KOD1 200916Z 16006KT 23/19 A2977 RMK A01 T02260192  RH  081%=      5-min Rain = 0
KOD1 200917Z 17006KT 23/19 A2976 RMK A01 T02260192  RH  081%=      5-min Rain = 0
KOD1 200918Z 17007KT 23/19 A2976 RMK A01 T02260192  RH  081%=      5-min Rain = 0
KOD1 200919Z 17007KT 23/19 A2976 RMK A01 T02260192  RH  081%=      5-min Rain = 0
KOD1 200920Z 17007KT 23/19 A2976 RMK A01 T02260192  RH  081%=      5-min Rain = 0
KOD1 200921Z 17006KT 23/19 A2976 RMK A01 T02260192  RH  081%=      5-min Rain = 0
KOD1 200922Z 16007KT 23/19 A2976 RMK A01 T02250193  RH  082%=      5-min Rain = 0
KOD1 200923Z 16006KT 23/19 A2976 RMK A01 T02250193  RH  082%=      5-min Rain = 0
KOD1 200924Z 16006KT 22/19 A2976 RMK A01 T02240193  RH  082%=      5-min Rain = 0
KOD1 200925Z 16006KT 22/19 A2976 RMK A01 T02240193  RH  083%=      5-min Rain = 0
KOD1 200926Z 16007KT 22/19 A2976 RMK A01 T02230193  RH  083%=      5-min Rain = 0
KOD1 200927Z 16006KT 22/19 A2976 RMK A01 T02230193  RH  083%=      5-min Rain = 0
KOD1 200928Z 16007KT 22/19 A2976 RMK A01 T02240193  RH  083%=      5-min Rain = 0
KOD1 200929Z 16006KT 22/19 A2976 RMK A01 T02240193  RH  083%=      5-min Rain = 0
KOD1 200930Z 15006KT 22/19 A2976 RMK A01 T02240193  RH  082%=      5-min Rain = 0
KOD1 200931Z 16006KT 23/19 A2976 RMK A01 T02250193  RH  082%=      5-min Rain = 0
KOD1 200932Z 16007KT 23/19 A2976 RMK A01 T02250193  RH  082%=      5-min Rain = 0
KOD1 200933Z 16007KT 23/19 A2976 RMK A01 T02260193  RH  082%=      5-min Rain = 0
KOD1 200934Z 17006KT 23/19 A2976 RMK A01 T02260193  RH  081%=      5-min Rain = 0
KOD1 200935Z 16006KT 23/19 A2976 RMK A01 T02260193  RH  082%=      5-min Rain = 0
KOD1 200936Z 16006KT 23/19 A2976 RMK A01 T02260194  RH  082%=      5-min Rain = 0
KOD1 200937Z 16006KT 23/19 A2976 RMK A01 T02260194  RH  082%=      5-min Rain = 0
KOD1 200938Z 16005KT 23/19 A2976 RMK A01 T02260194  RH  082%=      5-min Rain = 0
KOD1 200939Z 16005KT 23/19 A2976 RMK A01 T02260194  RH  082%=      5-min Rain = 0
KOD1 200940Z 15005KT 23/19 A2976 RMK A01 T02260194  RH  082%=      5-min Rain = 0
KOD1 200941Z 16005KT 23/19 A2976 RMK A01 T02260194  RH  082%=      5-min Rain = 0
KOD1 200942Z 15005KT 23/19 A2976 RMK A01 T02260194  RH  082%=      5-min Rain = 0
KOD1 200943Z 15005KT 23/19 A2976 RMK A01 T02260193  RH  082%=      5-min Rain = 0
KOD1 200944Z 15005KT 23/19 A2976 RMK A01 T02260194  RH  082%=      5-min Rain = 0
KOD1 200945Z 16006KT 23/19 A2976 RMK A01 T02250194  RH  082%=      5-min Rain = 0
KOD1 200946Z 16006KT 23/19 A2976 RMK A01 T02250194  RH  083%=      5-min Rain = 0
KOD1 200947Z 16005KT 22/19 A2976 RMK A01 T02240194  RH  083%=      5-min Rain = 0
KOD1 200948Z 15006KT 22/19 A2976 RMK A01 T02240194  RH  083%=      5-min Rain = 0
KOD1 200949Z 15005KT 22/19 A2976 RMK A01 T02240194  RH  083%=      5-min Rain = 0
KOD1 200950Z 15006KT 22/19 A2976 RMK A01 T02240194  RH  083%=      5-min Rain = 0
KOD1 200951Z 14005KT 23/19 A2976 RMK A01 T02250194  RH  083%=      5-min Rain = 0
KOD1 200952Z 14005KT 23/19 A2976 RMK A01 T02250194  RH  082%=      5-min Rain = 0
KOD1 200953Z 12004KT 23/19 A2976 RMK A01 T02250194  RH  082%=      5-min Rain = 0
KOD1 200954Z 12004KT 23/19 A2976 RMK A01 T02250194  RH  082%=      5-min Rain = 0
KOD1 200955Z 11005KT 22/19 A2976 RMK A01 T02240193  RH  083%=      5-min Rain = 0
KOD1 200956Z 10004KT 22/19 A2976 RMK A01 T02240194  RH  083%=      5-min Rain = 0
KOD1 200957Z 10006KT 22/19 A2976 RMK A01 T02230193  RH  083%=      5-min Rain = 0
KOD1 200958Z 10006KT 22/19 A2976 RMK A01 T02220193  RH  083%=      5-min Rain = 0
KOD1 200959Z 09006KT 22/19 A2976 RMK A01 T02210192  RH  084%=      5-min Rain = 0
KOD1 201000Z 09007KT 22/19 A2977 RMK A01 T02200192  RH  084%=      5-min Rain = 0
KOD1 201001Z 09007KT 22/19 A2977 RMK A01 T02190192  RH  085%=      5-min Rain = 0
KOD1 201002Z 09007KT 22/19 A2977 RMK A01 T02180192  RH  085%=      5-min Rain = 0
KOD1 201003Z 10007KT 22/19 A2977 RMK A01 T02170191  RH  085%=      5-min Rain = 0
KOD1 201004Z 10006KT 22/19 A2977 RMK A01 T02160192  RH  086%=      5-min Rain = 0
KOD1 201005Z 10006KT 22/19 A2977 RMK A01 T02160191  RH  086%=      5-min Rain = 0
KOD1 201006Z 09007KT 22/19 A2977 RMK A01 T02160192  RH  086%=      5-min Rain = 0
KOD1 201007Z 09006KT 22/19 A2977 RMK A01 T02170192  RH  086%=      5-min Rain = 0
KOD1 201008Z 09007KT 22/19 A2977 RMK A01 T02170192  RH  086%=      5-min Rain = 0
KOD1 201009Z 09008KT 22/19 A2977 RMK A01 T02170191  RH  086%=      5-min Rain = 0
KOD1 201010Z 09007KT 22/19 A2977 RMK A01 T02160192  RH  086%=      5-min Rain = 0
KOD1 201011Z 09007KT 22/19 A2977 RMK A01 T02150192  RH  086%=      5-min Rain = 0
KOD1 201012Z 09007KT 22/19 A2977 RMK A01 T02150192  RH  087%=      5-min Rain = 0
KOD1 201013Z 09007KT 22/19 A2977 RMK A01 T02150192  RH  087%=      5-min Rain = 0
KOD1 201014Z 10007KT 22/19 A2977 RMK A01 T02160192  RH  087%=      5-min Rain = 0
KOD1 201015Z 10007KT 22/19 A2977 RMK A01 T02160193  RH  087%=      5-min Rain = 0
KOD1 201016Z 10007KT 22/19 A2977 RMK A01 T02150192  RH  087%=      5-min Rain = 0
KOD1 201017Z 09007KT 22/19 A2977 RMK A01 T02150192  RH  087%=      5-min Rain = 0
KOD1 201018Z 09007KT 22/19 A2977 RMK A01 T02150192  RH  087%=      5-min Rain = 0
KOD1 201019Z 09008KT 21/19 A2977 RMK A01 T02140192  RH  087%=      5-min Rain = 0
KOD1 201020Z 09007KT 21/19 A2977 RMK A01 T02140192  RH  087%=      5-min Rain = 0
KOD1 201021Z 09008KT 21/19 A2977 RMK A01 T02140193  RH  088%=      5-min Rain = 0
KOD1 201022Z 10008KT 21/19 A2977 RMK A01 T02140193  RH  088%=      5-min Rain = 0
KOD1 201023Z 10008KT 21/19 A2977 RMK A01 T02140193  RH  088%=      5-min Rain = 0
KOD1 201024Z 09006KT 21/19 A2977 RMK A01 T02130192  RH  088%=      5-min Rain = 0
KOD1 201025Z 10006KT 21/19 A2977 RMK A01 T02130192  RH  088%=      5-min Rain = 0
KOD1 201026Z 10006KT 21/19 A2977 RMK A01 T02130192  RH  088%=      5-min Rain = 0
KOD1 201027Z 11006KT 21/19 A2977 RMK A01 T02130192  RH  088%=      5-min Rain = 0
KOD1 201028Z 11007KT 21/19 A2977 RMK A01 T02130192  RH  088%=      5-min Rain = 0
KOD1 201029Z 11007KT 21/19 A2977 RMK A01 T02130193  RH  088%=      5-min Rain = 0
KOD1 201030Z 10008KT 21/19 A2977 RMK A01 T02130193  RH  088%=      5-min Rain = 0
KOD1 201031Z 10008KT 21/19 A2977 RMK A01 T02140193  RH  088%=      5-min Rain = 0
KOD1 201032Z 11008KT 21/19 A2977 RMK A01 T02140193  RH  088%=      5-min Rain = 0
KOD1 201033Z 11008KT 21/19 A2977 RMK A01 T02140193  RH  088%=      5-min Rain = 0
KOD1 201034Z 11008KT 21/19 A2977 RMK A01 T02140193  RH  088%=      5-min Rain = 0
KOD1 201035Z 11007KT 21/19 A2977 RMK A01 T02140193  RH  088%=      5-min Rain = 0
KOD1 201036Z 11007KT 21/19 A2977 RMK A01 T02140193  RH  088%=      5-min Rain = 0
KOD1 201037Z 11007KT 21/19 A2977 RMK A01 T02140193  RH  088%=      5-min Rain = 0
KOD1 201038Z 12007KT 21/19 A2977 RMK A01 T02140193  RH  088%=      5-min Rain = 0
KOD1 201039Z 12009KT 21/19 A2977 RMK A01 T02130193  RH  088%=      5-min Rain = 0
KOD1 201040Z 12009KT 21/19 A2977 RMK A01 T02130193  RH  088%=      5-min Rain = 0
KOD1 201041Z 13009KT 21/19 A2977 RMK A01 T02130193  RH  088%=      5-min Rain = 0
KOD1 201042Z 13010KT 21/19 A2977 RMK A01 T02140194  RH  088%=      5-min Rain = 0
KOD1 201043Z 12010KT 21/19 A2977 RMK A01 T02140194  RH  088%=      5-min Rain = 0
KOD1 201044Z 13009KT 22/19 A2977 RMK A01 T02150194  RH  088%=      5-min Rain = 0
KOD1 201045Z 13008KT 22/19 A2977 RMK A01 T02150194  RH  088%=      5-min Rain = 0
KOD1 201046Z 13007KT 22/19 A2977 RMK A01 T02150194  RH  088%=      5-min Rain = 0
KOD1 201047Z 13008KT 21/19 A2977 RMK A01 T02140194  RH  088%=      5-min Rain = 0
KOD1 201048Z 13009KT 21/19 A2977 RMK A01 T02130194  RH  088%=      5-min Rain = 0
KOD1 201049Z 13008KT 21/19 A2977 RMK A01 T02130193  RH  089%=      5-min Rain = 0
KOD1 201050Z 13008KT 21/19 A2977 RMK A01 T02130194  RH  089%=      5-min Rain = 0
KOD1 201051Z 12008KT 21/19 A2977 RMK A01 T02130194  RH  089%=      5-min Rain = 0
KOD1 201052Z 12008KT 21/19 A2977 RMK A01 T02130194  RH  089%=      5-min Rain = 0
KOD1 201053Z 12009KT 21/19 A2977 RMK A01 T02130194  RH  089%=      5-min Rain = 0
KOD1 201054Z 12008KT 21/19 A2977 RMK A01 T02130194  RH  089%=      5-min Rain = 0
KOD1 201055Z 13008KT 21/19 A2977 RMK A01 T02130194  RH  089%=      5-min Rain = 0
KOD1 201056Z 12008KT 21/19 A2977 RMK A01 T02130194  RH  089%=      5-min Rain = 0
KOD1 201057Z 12010KT 21/19 A2977 RMK A01 T02130194  RH  089%=      5-min Rain = 0
KOD1 201058Z 12009KT 21/19 A2977 RMK A01 T02140194  RH  089%=      5-min Rain = 0
KOD1 201059Z 12010KT 21/19 A2977 RMK A01 T02140194  RH  089%=      5-min Rain = 0
KOD1 201100Z 13010KT 22/20 A2977 RMK A01 T02150195  RH  088%=      5-min Rain = 0
KOD1 201101Z 13009KT 22/20 A2977 RMK A01 T02150195  RH  088%=      5-min Rain = 0
KOD1 201102Z 12010KT 22/20 A2977 RMK A01 T02150195  RH  088%=      5-min Rain = 0
KOD1 201103Z 12010KT 22/20 A2977 RMK A01 T02160195  RH  088%=      5-min Rain = 0
KOD1 201104Z 12010KT 22/20 A2977 RMK A01 T02160195  RH  088%=      5-min Rain = 0
KOD1 201105Z 12010KT 22/20 A2977 RMK A01 T02160195  RH  087%=      5-min Rain = 0
KOD1 201106Z 12011KT 22/20 A2977 RMK A01 T02170195  RH  087%=      5-min Rain = 0
KOD1 201107Z 12010KT 22/20 A2977 RMK A01 T02170195  RH  087%=      5-min Rain = 0
KOD1 201108Z 12010KT 22/20 A2977 RMK A01 T02170195  RH  087%=      5-min Rain = 0
KOD1 201109Z 12010KT 22/20 A2977 RMK A01 T02170195  RH  087%=      5-min Rain = 0
KOD1 201110Z 12011KT 22/20 A2977 RMK A01 T02170195  RH  088%=      5-min Rain = 0
KOD1 201111Z 12011KT 22/20 A2977 RMK A01 T02170195  RH  088%=      5-min Rain = 0
KOD1 201112Z 12010KT 22/20 A2977 RMK A01 T02170195  RH  088%=      5-min Rain = 0
KOD1 201113Z 12010KT 22/20 A2977 RMK A01 T02160195  RH  088%=      5-min Rain = 0
KOD1 201114Z 12010KT 22/20 A2977 RMK A01 T02160195  RH  088%=      5-min Rain = 0
KOD1 201115Z 12010KT 22/20 A2977 RMK A01 T02150195  RH  088%=      5-min Rain = 0
KOD1 201116Z 12010KT 22/20 A2977 RMK A01 T02160195  RH  088%=      5-min Rain = 0
KOD1 201117Z 12010KT 22/20 A2977 RMK A01 T02160195  RH  088%=      5-min Rain = 0
KOD1 201118Z 12009KT 22/20 A2977 RMK A01 T02160195  RH  088%=      5-min Rain = 0
KOD1 201119Z 12009KT 22/20 A2977 RMK A01 T02160195  RH  088%=      5-min Rain = 0
KOD1 201120Z 12009KT 22/20 A2977 RMK A01 T02160195  RH  088%=      5-min Rain = 0
KOD1 201121Z 12008KT 22/20 A2977 RMK A01 T02160195  RH  088%=      5-min Rain = 0
KOD1 201122Z 12009KT 22/20 A2977 RMK A01 T02160195  RH  088%=      5-min Rain = 0
KOD1 201123Z 12009KT 22/20 A2977 RMK A01 T02160195  RH  088%=      5-min Rain = 0
KOD1 201124Z 12009KT 22/20 A2977 RMK A01 T02150195  RH  088%=      5-min Rain = 0
KOD1 201125Z 12009KT 22/20 A2977 RMK A01 T02150195  RH  088%=      5-min Rain = 0
KOD1 201126Z 12008KT 22/20 A2977 RMK A01 T02150195  RH  089%=      5-min Rain = 0
KOD1 201127Z 12008KT 21/20 A2977 RMK A01 T02140195  RH  089%=      5-min Rain = 0
KOD1 201128Z 12009KT 21/20 A2977 RMK A01 T02140195  RH  089%=      5-min Rain = 0
KOD1 201129Z 12008KT 21/20 A2977 RMK A01 T02140195  RH  089%=      5-min Rain = 0
KOD1 201130Z 12008KT 21/20 A2977 RMK A01 T02140195  RH  089%=      5-min Rain = 0
KOD1 201131Z 12008KT 21/20 A2976 RMK A01 T02140195  RH  089%=      5-min Rain = 0
KOD1 201132Z 12008KT 21/20 A2976 RMK A01 T02140195  RH  089%=      5-min Rain = 0
KOD1 201133Z 12008KT 21/20 A2976 RMK A01 T02130195  RH  089%=      5-min Rain = 0
KOD1 201134Z 12009KT 21/20 A2976 RMK A01 T02130195  RH  089%=      5-min Rain = 0
KOD1 201135Z 12009KT 21/20 A2977 RMK A01 T02130196  RH  090%=      5-min Rain = 0
KOD1 201136Z 11008KT 21/20 A2977 RMK A01 T02130195  RH  090%=      5-min Rain = 0
KOD1 201137Z 11008KT 21/20 A2976 RMK A01 T02130195  RH  090%=      5-min Rain = 0
KOD1 201138Z 11009KT 21/20 A2976 RMK A01 T02130195  RH  090%=      5-min Rain = 0
KOD1 201139Z 12008KT 21/20 A2976 RMK A01 T02130195  RH  090%=      5-min Rain = 0
KOD1 201140Z 12008KT 21/20 A2977 RMK A01 T02130195  RH  090%=      5-min Rain = 0
KOD1 201141Z 12008KT 21/20 A2977 RMK A01 T02130196  RH  090%=      5-min Rain = 0
KOD1 201142Z 12008KT 21/20 A2976 RMK A01 T02130196  RH  090%=      5-min Rain = 0
KOD1 201143Z 11008KT 21/20 A2976 RMK A01 T02130196  RH  090%=      5-min Rain = 0
KOD1 201144Z 12009KT 21/20 A2976 RMK A01 T02130196  RH  090%=      5-min Rain = 0
KOD1 201145Z 12008KT 21/20 A2976 RMK A01 T02140196  RH  090%=      5-min Rain = 0
KOD1 201146Z 12009KT 21/20 A2976 RMK A01 T02140196  RH  089%=      5-min Rain = 0
KOD1 201147Z 12009KT 21/20 A2976 RMK A01 T02140196  RH  089%=      5-min Rain = 0
KOD1 201148Z 12009KT 22/20 A2976 RMK A01 T02150196  RH  089%=      5-min Rain = 0
KOD1 201149Z 12010KT 22/20 A2976 RMK A01 T02150196  RH  089%=      5-min Rain = 0
KOD1 201150Z 12010KT 22/20 A2976 RMK A01 T02160197  RH  089%=      5-min Rain = 0
KOD1 201151Z 12009KT 22/20 A2976 RMK A01 T02170196  RH  088%=      5-min Rain = 0
KOD1 201152Z 12009KT 22/20 A2976 RMK A01 T02170196  RH  088%=      5-min Rain = 0
KOD1 201153Z 12009KT 22/20 A2976 RMK A01 T02180197  RH  088%=      5-min Rain = 0
KOD1 201154Z 12009KT 22/20 A2976 RMK A01 T02180196  RH  088%=      5-min Rain = 0
KOD1 201155Z 12009KT 22/20 A2976 RMK A01 T02180196  RH  087%=      5-min Rain = 0
KOD1 201156Z 12011KT 22/20 A2976 RMK A01 T02190196  RH  087%=      5-min Rain = 0
KOD1 201157Z 12009KT 22/20 A2976 RMK A01 T02200196  RH  086%=      5-min Rain = 0
KOD1 201158Z 12008KT 22/20 A2976 RMK A01 T02200196  RH  087%=      5-min Rain = 0
KOD1 201159Z 12008KT 22/20 A2976 RMK A01 T02200197  RH  087%=      5-min Rain = 0
KOD1 201200Z 13009KT 22/20 A2976 RMK A01 T02200196  RH  086%=      5-min Rain = 0
KOD1 201201Z 13009KT 22/20 A2976 RMK A01 T02210196  RH  086%=      5-min Rain = 0
KOD1 201202Z 12010KT 22/20 A2976 RMK A01 T02220196  RH  085%=      5-min Rain = 0
KOD1 201203Z 12009KT 22/20 A2976 RMK A01 T02220196  RH  085%=      5-min Rain = 0
KOD1 201204Z 12008KT 22/20 A2976 RMK A01 T02230196  RH  085%=      5-min Rain = 0
KOD1 201205Z 12009KT 22/20 A2976 RMK A01 T02230196  RH  085%=      5-min Rain = 0
KOD1 201206Z 12009KT 22/20 A2976 RMK A01 T02230197  RH  085%=      5-min Rain = 0
KOD1 201207Z 12009KT 22/20 A2977 RMK A01 T02230197  RH  085%=      5-min Rain = 0
KOD1 201208Z 12010KT 22/20 A2977 RMK A01 T02230198  RH  085%=      5-min Rain = 0
KOD1 201209Z 12010KT 22/20 A2977 RMK A01 T02230198  RH  085%=      5-min Rain = 0
KOD1 201210Z 12009KT 22/20 A2977 RMK A01 T02230198  RH  086%=      5-min Rain = 0
KOD1 201211Z 12009KT 22/20 A2977 RMK A01 T02230198  RH  085%=      5-min Rain = 0
KOD1 201212Z 12009KT 22/20 A2977 RMK A01 T02240197  RH  085%=      5-min Rain = 0
KOD1 201213Z 12009KT 23/20 A2977 RMK A01 T02250197  RH  084%=      5-min Rain = 0
KOD1 201214Z 12009KT 23/20 A2977 RMK A01 T02250197  RH  084%=      5-min Rain = 0
KOD1 201215Z 12010KT 23/20 A2977 RMK A01 T02250197  RH  084%=      5-min Rain = 0
KOD1 201216Z 12008KT 23/20 A2977 RMK A01 T02250198  RH  084%=      5-min Rain = 0
KOD1 201217Z 12009KT 23/20 A2977 RMK A01 T02250198  RH  085%=      5-min Rain = 0
KOD1 201218Z 12009KT 23/20 A2977 RMK A01 T02260198  RH  084%=      5-min Rain = 0
KOD1 201219Z 12009KT 23/20 A2977 RMK A01 T02260198  RH  084%=      5-min Rain = 0
KOD1 201220Z 12009KT 23/20 A2977 RMK A01 T02260198  RH  084%=      5-min Rain = 0
KOD1 201221Z 12009KT 23/20 A2977 RMK A01 T02260199  RH  084%=      5-min Rain = 0
KOD1 201222Z 12009KT 23/20 A2977 RMK A01 T02260199  RH  084%=      5-min Rain = 0
KOD1 201223Z 12008KT 23/20 A2977 RMK A01 T02260199  RH  084%=      5-min Rain = 0
KOD1 201224Z 12009KT 23/20 A2977 RMK A01 T02260199  RH  085%=      5-min Rain = 0
KOD1 201225Z 12008KT 23/20 A2977 RMK A01 T02270199  RH  084%=      5-min Rain = 0
KOD1 201226Z 12009KT 23/20 A2977 RMK A01 T02270199  RH  084%=      5-min Rain = 0
KOD1 201227Z 12009KT 23/20 A2977 RMK A01 T02270199  RH  084%=      5-min Rain = 0
KOD1 201228Z 12008KT 23/20 A2977 RMK A01 T02280198  RH  083%=      5-min Rain = 0
KOD1 201229Z 12009KT 23/20 A2977 RMK A01 T02280199  RH  084%=      5-min Rain = 0
KOD1 201230Z 12008KT 23/20 A2977 RMK A01 T02280200  RH  084%=      5-min Rain = 0
KOD1 201231Z 12008KT 23/20 A2977 RMK A01 T02280200  RH  084%=      5-min Rain = 0
KOD1 201232Z 12009KT 23/20 A2977 RMK A01 T02280200  RH  084%=      5-min Rain = 0
KOD1 201233Z 12008KT 23/20 A2977 RMK A01 T02280200  RH  084%=      5-min Rain = 0
KOD1 201234Z 12008KT 23/20 A2977 RMK A01 T02280200  RH  084%=      5-min Rain = 0
KOD1 201235Z 12007KT 23/20 A2977 RMK A01 T02280200  RH  084%=      5-min Rain = 0
KOD1 201236Z 13006KT 23/20 A2977 RMK A01 T02290201  RH  084%=      5-min Rain = 0
KOD1 201237Z 12007KT 23/20 A2977 RMK A01 T02300201  RH  084%=      5-min Rain = 0
KOD1 201238Z 13007KT 23/20 A2977 RMK A01 T02300201  RH  084%=      5-min Rain = 0
KOD1 201239Z 13007KT 23/20 A2977 RMK A01 T02300200  RH  083%=      5-min Rain = 0
KOD1 201240Z 13008KT 23/20 A2977 RMK A01 T02310201  RH  083%=      5-min Rain = 0
KOD1 201241Z 12008KT 23/20 A2977 RMK A01 T02320199  RH  082%=      5-min Rain = 0
KOD1 201242Z 12007KT 23/20 A2977 RMK A01 T02320200  RH  082%=      5-min Rain = 0
KOD1 201243Z 12007KT 23/20 A2977 RMK A01 T02330201  RH  082%=      5-min Rain = 0
KOD1 201244Z 12008KT 23/20 A2977 RMK A01 T02340200  RH  082%=      5-min Rain = 0
KOD1 201245Z 12007KT 23/20 A2977 RMK A01 T02340200  RH  081%=      5-min Rain = 0
KOD1 201246Z 12008KT 23/20 A2977 RMK A01 T02340199  RH  081%=      5-min Rain = 0
KOD1 201247Z 12008KT 23/20 A2977 RMK A01 T02340200  RH  081%=      5-min Rain = 0
KOD1 201248Z 13008KT 23/20 A2977 RMK A01 T02340199  RH  081%=      5-min Rain = 0
KOD1 201249Z 13009KT 24/20 A2977 RMK A01 T02350199  RH  080%=      5-min Rain = 0
KOD1 201250Z 13007KT 24/20 A2977 RMK A01 T02350198  RH  080%=      5-min Rain = 0
KOD1 201251Z 13008KT 24/20 A2977 RMK A01 T02360200  RH  080%=      5-min Rain = 0
KOD1 201252Z 13007KT 24/20 A2977 RMK A01 T02370198  RH  079%=      5-min Rain = 0
KOD1 201253Z 12008KT 24/20 A2977 RMK A01 T02380198  RH  078%=      5-min Rain = 0
KOD1 201254Z 12008KT 24/20 A2977 RMK A01 T02390198  RH  078%=      5-min Rain = 0
KOD1 201255Z 12009KT 24/20 A2977 RMK A01 T02400196  RH  077%=      5-min Rain = 0
KOD1 201256Z 13007KT 24/20 A2977 RMK A01 T02400198  RH  078%=      5-min Rain = 0
KOD1 201257Z 12009KT 24/20 A2977 RMK A01 T02410197  RH  077%=      5-min Rain = 0
KOD1 201258Z 13008KT 24/20 A2977 RMK A01 T02410196  RH  076%=      5-min Rain = 0
KOD1 201259Z 13009KT 24/20 A2977 RMK A01 T02410197  RH  077%=      5-min Rain = 0
KOD1 201300Z 13010KT 24/20 A2977 RMK A01 T02410197  RH  076%=      5-min Rain = 0
KOD1 201301Z 13009KT 24/20 A2977 RMK A01 T02410196  RH  076%=      5-min Rain = 0
KOD1 201302Z 13009KT 24/20 A2977 RMK A01 T02410197  RH  076%=      5-min Rain = 0
KOD1 201303Z 13009KT 24/20 A2977 RMK A01 T02420196  RH  076%=      5-min Rain = 0
KOD1 201304Z 13010KT 24/20 A2977 RMK A01 T02420196  RH  075%=      5-min Rain = 0
KOD1 201305Z 13010KT 24/20 A2977 RMK A01 T02420196  RH  075%=      5-min Rain = 0
KOD1 201306Z 13010KT 24/20 A2977 RMK A01 T02440195  RH  074%=      5-min Rain = 0
KOD1 201307Z 13009KT 25/20 A2977 RMK A01 T02450196  RH  074%=      5-min Rain = 0
KOD1 201308Z 13009KT 25/20 A2977 RMK A01 T02460197  RH  074%=      5-min Rain = 0
KOD1 201309Z 13010KT 25/20 A2977 RMK A01 T02470195  RH  073%=      5-min Rain = 0
KOD1 201310Z 13011KT 25/20 A2977 RMK A01 T02470195  RH  073%=      5-min Rain = 0
KOD1 201311Z 12012KT 25/19 A2977 RMK A01 T02470194  RH  072%=      5-min Rain = 0
KOD1 201312Z 14010KT 25/20 A2977 RMK A01 T02470195  RH  073%=      5-min Rain = 0
KOD1 201313Z 13012KT 25/20 A2977 RMK A01 T02470195  RH  073%=      5-min Rain = 0
KOD1 201314Z 14010KT 25/19 A2977 RMK A01 T02480194  RH  072%=      5-min Rain = 0
KOD1 201315Z 14010KT 25/20 A2977 RMK A01 T02480195  RH  072%=      5-min Rain = 0
KOD1 201316Z 14009KT 25/20 A2976 RMK A01 T02490195  RH  072%=      5-min Rain = 0
KOD1 201317Z 14009KT 25/20 A2976 RMK A01 T02500196  RH  072%=      5-min Rain = 0
KOD1 201318Z 14011KT 25/20 A2976 RMK A01 T02510195  RH  071%=      5-min Rain = 0
KOD1 201319Z 14013KT 25/19 A2976 RMK A01 T02500193  RH  071%=      5-min Rain = 0
KOD1 201320Z 14011KT 25/19 A2976 RMK A01 T02500194  RH  071%=      5-min Rain = 0
KOD1 201321Z 13012KT 25/19 A2976 RMK A01 T02510194  RH  071%=      5-min Rain = 0
KOD1 201322Z 14010KT 25/20 A2976 RMK A01 T02510195  RH  071%=      5-min Rain = 0
KOD1 201323Z 14009KT 25/20 A2976 RMK A01 T02530196  RH  071%=      5-min Rain = 0
KOD1 201324Z 14010KT 25/20 A2976 RMK A01 T02540196  RH  070%=      5-min Rain = 0
KOD1 201325Z 14011KT 25/19 A2976 RMK A01 T02540194  RH  069%=      5-min Rain = 0
KOD1 201326Z 14013KT 25/19 A2976 RMK A01 T02540194  RH  069%=      5-min Rain = 0
KOD1 201327Z 13011KT 25/19 A2976 RMK A01 T02530193  RH  069%=      5-min Rain = 0
KOD1 201328Z 13012KT 25/19 A2976 RMK A01 T02540193  RH  069%=      5-min Rain = 0
KOD1 201329Z 13012KT 25/19 A2976 RMK A01 T02540194  RH  069%=      5-min Rain = 0
KOD1 201330Z 13012KT 26/19 A2976 RMK A01 T02550194  RH  069%=      5-min Rain = 0
KOD1 201331Z 13012KT 26/19 A2976 RMK A01 T02550194  RH  069%=      5-min Rain = 0
KOD1 201332Z 13012KT 26/19 A2976 RMK A01 T02560194  RH  069%=      5-min Rain = 0
KOD1 201333Z 14013KT 26/19 A2976 RMK A01 T02560194  RH  069%=      5-min Rain = 0
KOD1 201334Z 14010KT 26/20 A2976 RMK A01 T02560195  RH  069%=      5-min Rain = 0
KOD1 201335Z 14012KT 26/20 A2976 RMK A01 T02580196  RH  069%=      5-min Rain = 0
KOD1 201336Z 14013KT 26/20 A2976 RMK A01 T02580196  RH  069%=      5-min Rain = 0
KOD1 201337Z 14013KT 26/20 A2976 RMK A01 T02570196  RH  069%=      5-min Rain = 0
KOD1 201338Z 14013KT 26/20 A2976 RMK A01 T02580196  RH  069%=      5-min Rain = 0
KOD1 201339Z 14012KT 26/20 A2976 RMK A01 T02580196  RH  069%=      5-min Rain = 0
KOD1 201340Z 14010KT 26/20 A2976 RMK A01 T02590198  RH  069%=      5-min Rain = 0
KOD1 201341Z 14010KT 26/20 A2976 RMK A01 T02610199  RH  069%=      5-min Rain = 0
KOD1 201342Z 15011KT 26/20 A2976 RMK A01 T02620199  RH  068%=      5-min Rain = 0
KOD1 201343Z 14013KT 26/20 A2976 RMK A01 T02610199  RH  069%=      5-min Rain = 0
KOD1 201344Z 15010KT 26/20 A2976 RMK A01 T02610200  RH  069%=      5-min Rain = 0
KOD1 201345Z 15012KT 26/20 A2976 RMK A01 T02620201  RH  069%=      5-min Rain = 0
KOD1 201346Z 15014KT 26/20 A2976 RMK A01 T02630200  RH  069%=      5-min Rain = 0
KOD1 201347Z 15012KT 26/20 A2976 RMK A01 T02620200  RH  069%=      5-min Rain = 0
KOD1 201348Z 15012KT 26/20 A2976 RMK A01 T02630201  RH  069%=      5-min Rain = 0
KOD1 201349Z 14011G16KT 26/20 A2976 RMK A01 T02640201  RH  068%=      5-min Rain = 0
KOD1 201350Z 15012KT 26/20 A2976 RMK A01 T02640201  RH  068%=      5-min Rain = 0
KOD1 201351Z 15012G17KT 27/20 A2976 RMK A01 T02650202  RH  068%=      5-min Rain = 0
KOD1 201352Z 15015KT 27/20 A2976 RMK A01 T02650203  RH  068%=      5-min Rain = 0
KOD1 201353Z 15014KT 27/20 A2976 RMK A01 T02660203  RH  068%=      5-min Rain = 0
KOD1 201354Z 15014KT 27/20 A2976 RMK A01 T02660202  RH  068%=      5-min Rain = 0
KOD1 201355Z 15011KT 27/20 A2976 RMK A01 T02670203  RH  068%=      5-min Rain = 0
KOD1 201356Z 14012KT 27/21 A2976 RMK A01 T02680205  RH  068%=      5-min Rain = 0
KOD1 201357Z 14014KT 27/20 A2976 RMK A01 T02690204  RH  068%=      5-min Rain = 0
KOD1 201358Z 15014KT 27/20 A2976 RMK A01 T02690204  RH  068%=      5-min Rain = 0
KOD1 201359Z 15015KT 27/20 A2976 RMK A01 T02690204  RH  067%=      5-min Rain = 0
KOD1 201400Z 15016KT 27/20 A2976 RMK A01 T02690204  RH  068%=      5-min Rain = 0
KOD1 201401Z 15014KT 27/21 A2976 RMK A01 T02690205  RH  068%=      5-min Rain = 0
KOD1 201402Z 16015KT 27/21 A2975 RMK A01 T02690206  RH  068%=      5-min Rain = 0
KOD1 201403Z 15012KT 27/21 A2976 RMK A01 T02700207  RH  068%=      5-min Rain = 0
KOD1 201404Z 14012KT 27/21 A2975 RMK A01 T02710207  RH  068%=      5-min Rain = 0
KOD1 201405Z 15014KT 27/21 A2975 RMK A01 T02720207  RH  068%=      5-min Rain = 0
KOD1 201406Z 14014KT 27/21 A2975 RMK A01 T02720207  RH  068%=      5-min Rain = 0
KOD1 201407Z 15014KT 27/21 A2975 RMK A01 T02720207  RH  067%=      5-min Rain = 0
KOD1 201408Z 15016KT 27/21 A2975 RMK A01 T02720208  RH  068%=      5-min Rain = 0
KOD1 201409Z 15014KT 27/21 A2975 RMK A01 T02720209  RH  068%=      5-min Rain = 0
KOD1 201410Z 15014KT 27/21 A2975 RMK A01 T02730209  RH  068%=      5-min Rain = 0
KOD1 201411Z 15012KT 28/21 A2975 RMK A01 T02750210  RH  068%=      5-min Rain = 0
KOD1 201412Z 15016KT 28/21 A2975 RMK A01 T02760209  RH  067%=      5-min Rain = 0
KOD1 201413Z 15014KT 28/21 A2975 RMK A01 T02760209  RH  067%=      5-min Rain = 0
KOD1 201414Z 15018KT 28/21 A2975 RMK A01 T02760210  RH  067%=      5-min Rain = 0
KOD1 201415Z 15015KT 28/21 A2975 RMK A01 T02750209  RH  067%=      5-min Rain = 0
KOD1 201416Z 15013KT 28/21 A2975 RMK A01 T02760210  RH  068%=      5-min Rain = 0
KOD1 201417Z 14013KT 28/21 A2975 RMK A01 T02770211  RH  067%=      5-min Rain = 0
KOD1 201418Z 14013KT 28/21 A2975 RMK A01 T02780212  RH  067%=      5-min Rain = 0
KOD1 201419Z 14014KT 28/21 A2975 RMK A01 T02780211  RH  067%=      5-min Rain = 0
KOD1 201420Z 15014KT 28/21 A2975 RMK A01 T02780211  RH  067%=      5-min Rain = 0
KOD1 201421Z 15016KT 28/21 A2975 RMK A01 T02790211  RH  067%=      5-min Rain = 0
KOD1 201422Z 15017KT 28/21 A2975 RMK A01 T02780210  RH  067%=      5-min Rain = 0
KOD1 201423Z 15015KT 28/21 A2975 RMK A01 T02780211  RH  067%=      5-min Rain = 0
KOD1 201424Z 15015KT 28/21 A2975 RMK A01 T02780211  RH  067%=      5-min Rain = 0
KOD1 201425Z 15016KT 28/21 A2975 RMK A01 T02780211  RH  067%=      5-min Rain = 0
KOD1 201426Z 15016KT 28/21 A2975 RMK A01 T02780211  RH  067%=      5-min Rain = 0
KOD1 201427Z 15016KT 28/21 A2975 RMK A01 T02780211  RH  067%=      5-min Rain = 0
KOD1 201428Z 14014KT 28/21 A2975 RMK A01 T02780211  RH  067%=      5-min Rain = 0
KOD1 201429Z 15012KT 28/21 A2975 RMK A01 T02790213  RH  067%=      5-min Rain = 0
KOD1 201430Z 14012KT 28/21 A2975 RMK A01 T02810214  RH  067%=      5-min Rain = 0
KOD1 201431Z 15015KT 28/21 A2975 RMK A01 T02820212  RH  066%=      5-min Rain = 0
KOD1 201432Z 15012KT 28/21 A2975 RMK A01 T02810214  RH  067%=      5-min Rain = 0
KOD1 201433Z 14012KT 28/22 A2975 RMK A01 T02830215  RH  067%=      5-min Rain = 0
KOD1 201434Z 15013KT 28/21 A2975 RMK A01 T02830214  RH  066%=      5-min Rain = 0
KOD1 201435Z 15015KT 28/22 A2975 RMK A01 T02840215  RH  066%=      5-min Rain = 0
KOD1 201436Z 14012KT 28/22 A2975 RMK A01 T02830215  RH  066%=      5-min Rain = 0
KOD1 201437Z 14013KT 28/22 A2975 RMK A01 T02840215  RH  066%=      5-min Rain = 0
KOD1 201438Z 15015KT 28/21 A2975 RMK A01 T02840214  RH  066%=      5-min Rain = 0
KOD1 201439Z 15014KT 28/21 A2975 RMK A01 T02840214  RH  066%=      5-min Rain = 0
KOD1 201440Z 15012KT 28/22 A2975 RMK A01 T02830215  RH  067%=      5-min Rain = 0
KOD1 201441Z 15014KT 28/22 A2975 RMK A01 T02840215  RH  066%=      5-min Rain = 0
KOD1 201442Z 16014KT 28/22 A2975 RMK A01 T02830215  RH  067%=      5-min Rain = 0
KOD1 201443Z 15016KT 28/22 A2975 RMK A01 T02830215  RH  067%=      5-min Rain = 0
KOD1 201444Z 15014KT 28/21 A2975 RMK A01 T02820214  RH  066%=      5-min Rain = 0
KOD1 201445Z 15013KT 28/21 A2975 RMK A01 T02820214  RH  067%=      5-min Rain = 0
KOD1 201446Z 15014KT 28/22 A2975 RMK A01 T02830215  RH  067%=      5-min Rain = 0
KOD1 201447Z 15013KT 28/22 A2975 RMK A01 T02830216  RH  067%=      5-min Rain = 0
KOD1 201448Z 14013KT 28/22 A2975 RMK A01 T02830215  RH  066%=      5-min Rain = 0
KOD1 201449Z 15015KT 28/22 A2975 RMK A01 T02830215  RH  067%=      5-min Rain = 0
KOD1 201450Z 15014KT 28/22 A2975 RMK A01 T02830216  RH  067%=      5-min Rain = 0
KOD1 201451Z 15013KT 28/22 A2975 RMK A01 T02840217  RH  067%=      5-min Rain = 0
KOD1 201452Z 16012KT 28/22 A2975 RMK A01 T02840217  RH  067%=      5-min Rain = 0
KOD1 201453Z 16014KT 29/22 A2975 RMK A01 T02850218  RH  067%=      5-min Rain = 0
KOD1 201454Z 15013KT 28/22 A2975 RMK A01 T02840217  RH  067%=      5-min Rain = 0
KOD1 201455Z 14011KT 28/22 A2975 RMK A01 T02840216  RH  067%=      5-min Rain = 0
KOD1 201456Z 15010KT 29/22 A2975 RMK A01 T02850217  RH  067%=      5-min Rain = 0
KOD1 201457Z 14009KT 29/22 A2975 RMK A01 T02860220  RH  067%=      5-min Rain = 0
KOD1 201458Z 14013KT 29/22 A2975 RMK A01 T02870217  RH  066%=      5-min Rain = 0
KOD1 201459Z 14014KT 29/22 A2975 RMK A01 T02850215  RH  066%=      5-min Rain = 0
KOD1 201500Z 15014KT 28/22 A2975 RMK A01 T02840215  RH  066%=      5-min Rain = 0
KOD1 201501Z 15013KT 28/22 A2975 RMK A01 T02830216  RH  067%=      5-min Rain = 0
KOD1 201502Z 14013KT 28/22 A2975 RMK A01 T02830216  RH  067%=      5-min Rain = 0
KOD1 201503Z 14012KT 28/22 A2975 RMK A01 T02830215  RH  067%=      5-min Rain = 0
KOD1 201504Z 15011KT 28/22 A2975 RMK A01 T02830216  RH  067%=      5-min Rain = 0
KOD1 201505Z 14013KT 29/22 A2975 RMK A01 T02850217  RH  067%=      5-min Rain = 0
KOD1 201506Z 14013KT 29/22 A2975 RMK A01 T02850215  RH  066%=      5-min Rain = 0
KOD1 201507Z 16012KT 29/22 A2975 RMK A01 T02850216  RH  066%=      5-min Rain = 0
KOD1 201508Z 15010KT 28/22 A2975 RMK A01 T02840217  RH  067%=      5-min Rain = 0
KOD1 201509Z 15012KT 29/22 A2975 RMK A01 T02850218  RH  067%=      5-min Rain = 0
KOD1 201510Z 15009KT 29/22 A2975 RMK A01 T02850217  RH  067%=      5-min Rain = 0
KOD1 201511Z 13009KT 29/22 A2975 RMK A01 T02860218  RH  067%=      5-min Rain = 0
KOD1 201512Z 15011KT 29/22 A2975 RMK A01 T02880220  RH  067%=      5-min Rain = 0
KOD1 201513Z 14013KT 29/22 A2975 RMK A01 T02890217  RH  065%=      5-min Rain = 0
KOD1 201514Z 14011KT 29/22 A2976 RMK A01 T02870217  RH  066%=      5-min Rain = 0
KOD1 201515Z 16010KT 29/22 A2976 RMK A01 T02890220  RH  066%=      5-min Rain = 0
KOD1 201516Z 15011KT 29/22 A2976 RMK A01 T02900220  RH  066%=      5-min Rain = 0
KOD1 201517Z 15011KT 29/22 A2976 RMK A01 T02900219  RH  065%=      5-min Rain = 0
KOD1 201518Z 16012KT 29/22 A2976 RMK A01 T02900220  RH  066%=      5-min Rain = 0
KOD1 201519Z 17013KT 29/22 A2976 RMK A01 T02880217  RH  065%=      5-min Rain = 0
KOD1 201520Z 16012KT 29/22 A2976 RMK A01 T02870218  RH  066%=      5-min Rain = 0
KOD1 201521Z 15012KT 29/22 A2976 RMK A01 T02870218  RH  066%=      5-min Rain = 0
KOD1 201522Z 15010KT 29/22 A2976 RMK A01 T02870219  RH  066%=      5-min Rain = 0
KOD1 201523Z 14014KT 29/22 A2975 RMK A01 T02880218  RH  066%=      5-min Rain = 0
KOD1 201524Z 14013KT 29/22 A2975 RMK A01 T02880218  RH  066%=      5-min Rain = 0
KOD1 201525Z 15010KT 29/22 A2975 RMK A01 T02890218  RH  066%=      5-min Rain = 0
KOD1 201526Z 15010G15KT 29/22 A2975 RMK A01 T02900218  RH  065%=      5-min Rain = 0
KOD1 201527Z 17010KT 29/22 A2975 RMK A01 T02900217  RH  065%=      5-min Rain = 0
KOD1 201528Z 16010KT 29/22 A2975 RMK A01 T02900220  RH  066%=      5-min Rain = 0
KOD1 201529Z 16009KT 29/22 A2975 RMK A01 T02890217  RH  065%=      5-min Rain = 0
KOD1 201530Z 16009KT 29/22 A2975 RMK A01 T02890219  RH  066%=      5-min Rain = 0
KOD1 201531Z 17012KT 29/22 A2975 RMK A01 T02900220  RH  066%=      5-min Rain = 0
KOD1 201532Z 17011KT 29/22 A2975 RMK A01 T02890216  RH  065%=      5-min Rain = 0
KOD1 201533Z 16010KT 29/22 A2975 RMK A01 T02890218  RH  066%=      5-min Rain = 0
KOD1 201534Z 16009KT 29/22 A2975 RMK A01 T02910218  RH  065%=      5-min Rain = 0
KOD1 201535Z 17010KT 29/22 A2975 RMK A01 T02920220  RH  065%=      5-min Rain = 0
KOD1 201536Z 17012KT 29/22 A2975 RMK A01 T02930220  RH  065%=      5-min Rain = 0
KOD1 201537Z 17012KT 29/22 A2975 RMK A01 T02920220  RH  065%=      5-min Rain = 0
KOD1 201538Z 16009KT 29/22 A2975 RMK A01 T02910221  RH  066%=      5-min Rain = 0
KOD1 201539Z 17010KT 29/22 A2975 RMK A01 T02920220  RH  065%=      5-min Rain = 0
KOD1 201540Z 17011KT 29/22 A2975 RMK A01 T02920220  RH  065%=      5-min Rain = 0
KOD1 201541Z 17010KT 29/22 A2975 RMK A01 T02920219  RH  065%=      5-min Rain = 0
KOD1 201542Z 17010KT 29/22 A2975 RMK A01 T02920220  RH  065%=      5-min Rain = 0
KOD1 201543Z 18011KT 29/22 A2975 RMK A01 T02920220  RH  065%=      5-min Rain = 0
KOD1 201544Z 18012KT 29/22 A2975 RMK A01 T02910220  RH  066%=      5-min Rain = 0
KOD1 201545Z 18011KT 29/22 A2975 RMK A01 T02910221  RH  066%=      5-min Rain = 0
KOD1 201546Z 18009KT 29/22 A2975 RMK A01 T02900218  RH  065%=      5-min Rain = 0
KOD1 201547Z 16011KT 29/22 A2975 RMK A01 T02900220  RH  066%=      5-min Rain = 0
KOD1 201548Z 16008KT 29/22 A2975 RMK A01 T02900220  RH  066%=      5-min Rain = 0
KOD1 201549Z 17010KT 29/22 A2975 RMK A01 T02920221  RH  066%=      5-min Rain = 0
KOD1 201550Z 19011KT 29/22 A2975 RMK A01 T02920220  RH  065%=      5-min Rain = 0
KOD1 201551Z 16010KT 29/22 A2975 RMK A01 T02920223  RH  067%=      5-min Rain = 0
KOD1 201552Z 16012KT 29/22 A2975 RMK A01 T02940219  RH  064%=      5-min Rain = 0
KOD1 201553Z 18010KT 29/22 A2975 RMK A01 T02930220  RH  065%=      5-min Rain = 0
KOD1 201554Z 18010KT 29/22 A2975 RMK A01 T02930221  RH  065%=      5-min Rain = 0
KOD1 201555Z 18008KT 29/22 A2975 RMK A01 T02920222  RH  066%=      5-min Rain = 0
KOD1 201556Z 17013KT 29/22 A2975 RMK A01 T02930220  RH  065%=      5-min Rain = 0
KOD1 201557Z 17012KT 29/22 A2975 RMK A01 T02930218  RH  064%=      5-min Rain = 0
KOD1 201558Z 17010KT 29/22 A2975 RMK A01 T02930220  RH  065%=      5-min Rain = 0
KOD1 201559Z 17013KT 30/22 A2975 RMK A01 T02950222  RH  065%=      5-min Rain = 0
KOD1 201600Z 17013KT 29/22 A2975 RMK A01 T02940221  RH  065%=      5-min Rain = 0
KOD1 201601Z 17011KT 30/22 A2975 RMK A01 T02950222  RH  065%=      5-min Rain = 0
KOD1 201602Z 17010KT 29/22 A2975 RMK A01 T02930221  RH  065%=      5-min Rain = 0
KOD1 201603Z 17009KT 29/22 A2975 RMK A01 T02930224  RH  066%=      5-min Rain = 0
KOD1 201604Z 14010KT 30/22 A2975 RMK A01 T02950221  RH  064%=      5-min Rain = 0
KOD1 201605Z 16009KT 30/22 A2975 RMK A01 T02950220  RH  064%=      5-min Rain = 0
KOD1 201606Z 17008KT 30/22 A2975 RMK A01 T02950221  RH  064%=      5-min Rain = 0
KOD1 201607Z 17010KT 30/22 A2975 RMK A01 T02950221  RH  064%=      5-min Rain = 0
KOD1 201608Z 15012KT 30/22 A2975 RMK A01 T02960220  RH  064%=      5-min Rain = 0
KOD1 201609Z 18013KT 30/22 A2975 RMK A01 T02960223  RH  065%=      5-min Rain = 0
KOD1 201610Z 18012KT 30/22 A2975 RMK A01 T02960219  RH  063%=      5-min Rain = 0
KOD1 201611Z 18010KT 30/22 A2975 RMK A01 T02950222  RH  065%=      5-min Rain = 0
KOD1 201612Z 18011KT 30/22 A2975 RMK A01 T02950221  RH  065%=      5-min Rain = 0
KOD1 201613Z 18011KT 30/22 A2975 RMK A01 T02950224  RH  066%=      5-min Rain = 0
KOD1 201614Z 16012KT 30/22 A2975 RMK A01 T02960222  RH  064%=      5-min Rain = 0
KOD1 201615Z 15011KT 30/22 A2975 RMK A01 T02960223  RH  065%=      5-min Rain = 0
KOD1 201616Z 17010KT 30/22 A2975 RMK A01 T02980224  RH  064%=      5-min Rain = 0
KOD1 201617Z 17009G14KT 30/22 A2975 RMK A01 T02990224  RH  064%=      5-min Rain = 0
KOD1 201618Z 17012KT 30/22 A2975 RMK A01 T02980222  RH  064%=      5-min Rain = 0
KOD1 201619Z 16013KT 30/22 A2975 RMK A01 T02970224  RH  065%=      5-min Rain = 0
KOD1 201620Z 16010KT 30/22 A2975 RMK A01 T02980223  RH  064%=      5-min Rain = 0
KOD1 201621Z 16012KT 30/22 A2975 RMK A01 T02990222  RH  063%=      5-min Rain = 0
KOD1 201622Z 17012KT 30/22 A2975 RMK A01 T02990222  RH  063%=      5-min Rain = 0
KOD1 201623Z 17011KT 30/22 A2975 RMK A01 T02980223  RH  064%=      5-min Rain = 0
KOD1 201624Z 17008KT 30/22 A2975 RMK A01 T02990224  RH  064%=      5-min Rain = 0
KOD1 201625Z 18010KT 30/22 A2975 RMK A01 T03000224  RH  064%=      5-min Rain = 0
KOD1 201626Z 18011KT 30/23 A2975 RMK A01 T03000225  RH  064%=      5-min Rain = 0
KOD1 201627Z 17012KT 30/23 A2975 RMK A01 T02990225  RH  064%=      5-min Rain = 0
KOD1 201628Z 17011KT 30/22 A2975 RMK A01 T02990224  RH  064%=      5-min Rain = 0
KOD1 201629Z 17010KT 30/23 A2975 RMK A01 T03000226  RH  065%=      5-min Rain = 0
KOD1 201630Z 17011G16KT 30/22 A2975 RMK A01 T03000224  RH  064%=      5-min Rain = 0
KOD1 201631Z 18013KT 30/22 A2975 RMK A01 T03000223  RH  064%=      5-min Rain = 0
KOD1 201632Z 17012KT 30/22 A2975 RMK A01 T03000224  RH  064%=      5-min Rain = 0
KOD1 201633Z 18010KT 30/23 A2975 RMK A01 T03010225  RH  064%=      5-min Rain = 0
KOD1 201634Z 17012KT 30/23 A2975 RMK A01 T03010225  RH  064%=      5-min Rain = 0
KOD1 201635Z 17012KT 30/23 A2975 RMK A01 T03010226  RH  064%=      5-min Rain = 0
KOD1 201641Z 18009KT 31/23 A2975 RMK A01 T03050225  RH  062%=      5-min Rain = 0
KOD1 201642Z 18010KT 30/23 A2975 RMK A01 T03030225  RH  063%=      5-min Rain = 0
KOD1 201643Z 18010KT 30/23 A2975 RMK A01 T03030228  RH  064%=      5-min Rain = 0
KOD1 201644Z 16011KT 31/23 A2975 RMK A01 T03050228  RH  064%=      5-min Rain = 0
KOD1 201645Z 16011KT 31/22 A2975 RMK A01 T03050224  RH  062%=      5-min Rain = 0
KOD1 201646Z 16013KT 31/23 A2975 RMK A01 T03050226  RH  063%=      5-min Rain = 0
KOD1 201647Z 15013KT 31/22 A2975 RMK A01 T03050224  RH  062%=      5-min Rain = 0
KOD1 201648Z 16011KT 31/23 A2975 RMK A01 T03070227  RH  062%=      5-min Rain = 0
KOD1 201649Z 18011KT 31/23 A2975 RMK A01 T03100230  RH  063%=      5-min Rain = 0
KOD1 201650Z 17008KT 31/23 A2975 RMK A01 T03080226  RH  062%=      5-min Rain = 0
KOD1 201651Z 16009KT 31/23 A2975 RMK A01 T03070227  RH  062%=      5-min Rain = 0
KOD1 201652Z 18012KT 31/23 A2975 RMK A01 T03060226  RH  062%=      5-min Rain = 0
KOD1 201653Z 17010KT 31/22 A2975 RMK A01 T03050223  RH  062%=      5-min Rain = 0
KOD1 201654Z 17008KT 31/23 A2974 RMK A01 T03070229  RH  063%=      5-min Rain = 0
KOD1 201655Z 16012KT 31/23 A2974 RMK A01 T03100231  RH  063%=      5-min Rain = 0
KOD1 201656Z 17011KT 31/23 A2974 RMK A01 T03110231  RH  062%=      5-min Rain = 0
KOD1 201657Z 18012KT 31/23 A2974 RMK A01 T03130230  RH  062%=      5-min Rain = 0
KOD1 201658Z 19010KT 31/23 A2974 RMK A01 T03110227  RH  061%=      5-min Rain = 0
KOD1 201659Z 20011KT 31/23 A2974 RMK A01 T03100230  RH  062%=      5-min Rain = 0
KOD1 201700Z 20010KT 31/23 A2974 RMK A01 T03090228  RH  062%=      5-min Rain = 0
KOD1 201701Z 18009KT 31/23 A2974 RMK A01 T03090232  RH  064%=      5-min Rain = 0
KOD1 201702Z 18011KT 31/23 A2974 RMK A01 T03100230  RH  062%=      5-min Rain = 0
KOD1 201703Z 17009KT 31/23 A2974 RMK A01 T03110228  RH  061%=      5-min Rain = 0
KOD1 201704Z 16009KT 31/23 A2974 RMK A01 T03100225  RH  061%=      5-min Rain = 0
KOD1 201705Z 16010KT 31/23 A2974 RMK A01 T03120229  RH  062%=      5-min Rain = 0
KOD1 201706Z 17012KT 31/23 A2974 RMK A01 T03120225  RH  060%=      5-min Rain = 0
KOD1 201707Z 17011KT 31/23 A2974 RMK A01 T03110226  RH  061%=      5-min Rain = 0
KOD1 201708Z 18011KT 31/23 A2974 RMK A01 T03100227  RH  061%=      5-min Rain = 0
KOD1 201709Z 19013KT 31/23 A2974 RMK A01 T03100228  RH  061%=      5-min Rain = 0
KOD1 201710Z 18011KT 31/23 A2974 RMK A01 T03100229  RH  062%=      5-min Rain = 0
KOD1 201711Z 18009KT 31/23 A2974 RMK A01 T03120229  RH  062%=      5-min Rain = 0
KOD1 201712Z 18014KT 31/23 A2974 RMK A01 T03130229  RH  061%=      5-min Rain = 0
KOD1 201713Z 17012KT 31/22 A2974 RMK A01 T03130224  RH  059%=      5-min Rain = 0
KOD1 201714Z 17013KT 31/23 A2974 RMK A01 T03120225  RH  060%=      5-min Rain = 0
KOD1 201715Z 20009KT 31/23 A2974 RMK A01 T03120226  RH  060%=      5-min Rain = 0
KOD1 201716Z 19010KT 31/23 A2974 RMK A01 T03130229  RH  061%=      5-min Rain = 0
KOD1 201717Z 18010KT 31/23 A2974 RMK A01 T03130226  RH  060%=      5-min Rain = 0
KOD1 201718Z 18009KT 31/23 A2974 RMK A01 T03120228  RH  061%=      5-min Rain = 0
KOD1 201719Z 18013KT 31/23 A2974 RMK A01 T03120227  RH  061%=      5-min Rain = 0
KOD1 201720Z 18012KT 31/23 A2974 RMK A01 T03130229  RH  061%=      5-min Rain = 0
KOD1 201721Z 17009KT 31/23 A2974 RMK A01 T03130226  RH  060%=      5-min Rain = 0
KOD1 201722Z 16009KT 31/23 A2974 RMK A01 T03130229  RH  061%=      5-min Rain = 0
KOD1 201723Z 19007KT 32/23 A2974 RMK A01 T03170233  RH  061%=      5-min Rain = 0
KOD1 201724Z 18007KT 32/23 A2974 RMK A01 T03170233  RH  061%=      5-min Rain = 0
KOD1 201725Z 20011KT 32/23 A2974 RMK A01 T03170230  RH  060%=      5-min Rain = 0
KOD1 201726Z 21013KT 32/23 A2974 RMK A01 T03160231  RH  061%=      5-min Rain = 0
KOD1 201727Z 19012KT 32/23 A2974 RMK A01 T03150229  RH  061%=      5-min Rain = 0
KOD1 201728Z 19011KT 31/23 A2974 RMK A01 T03140230  RH  061%=      5-min Rain = 0
KOD1 201729Z 19011KT 31/23 A2974 RMK A01 T03140228  RH  060%=      5-min Rain = 0
KOD1 201730Z 17010KT 32/23 A2974 RMK A01 T03150231  RH  061%=      5-min Rain = 0
KOD1 201731Z 17009G14KT 32/23 A2974 RMK A01 T03170233  RH  061%=      5-min Rain = 0
KOD1 201732Z 17011KT 32/23 A2974 RMK A01 T03190230  RH  059%=      5-min Rain = 0
KOD1 201733Z 18011KT 32/23 A2974 RMK A01 T03180230  RH  060%=      5-min Rain = 0
KOD1 201734Z 18010KT 32/23 A2974 RMK A01 T03170230  RH  060%=      5-min Rain = 0
KOD1 201735Z 18009KT 32/23 A2974 RMK A01 T03160232  RH  061%=      5-min Rain = 0
KOD1 201736Z 19010KT 32/23 A2974 RMK A01 T03170231  RH  060%=      5-min Rain = 0
KOD1 201737Z 18008KT 32/23 A2974 RMK A01 T03170231  RH  061%=      5-min Rain = 0
KOD1 201738Z 17009KT 32/23 A2974 RMK A01 T03180234  RH  061%=      5-min Rain = 0
KOD1 201739Z 19009KT 32/24 A2974 RMK A01 T03200235  RH  061%=      5-min Rain = 0
KOD1 201740Z 19009KT 32/24 A2974 RMK A01 T03210237  RH  061%=      5-min Rain = 0
KOD1 201741Z 17011KT 32/24 A2974 RMK A01 T03210235  RH  060%=      5-min Rain = 0
KOD1 201742Z 17010KT 32/23 A2974 RMK A01 T03220233  RH  060%=      5-min Rain = 0
KOD1 201743Z 18010KT 32/23 A2974 RMK A01 T03220233  RH  060%=      5-min Rain = 0
KOD1 201744Z 18010KT 32/23 A2974 RMK A01 T03200233  RH  060%=      5-min Rain = 0
KOD1 201745Z 18010KT 32/24 A2974 RMK A01 T03210240  RH  062%=      5-min Rain = 0
KOD1 201746Z 16012KT 32/24 A2974 RMK A01 T03230237  RH  060%=      5-min Rain = 0
KOD1 201747Z 16005KT 32/23 A2974 RMK A01 T03220234  RH  060%=      5-min Rain = 0
KOD1 201748Z 14008KT 32/24 A2974 RMK A01 T03220235  RH  060%=      5-min Rain = 0
KOD1 201749Z 16012KT 32/23 A2974 RMK A01 T03230234  RH  060%=      5-min Rain = 0
KOD1 201750Z 16011KT 32/24 A2974 RMK A01 T03230238  RH  061%=      5-min Rain = 0
KOD1 201751Z 16013KT 32/24 A2974 RMK A01 T03230237  RH  060%=      5-min Rain = 0
KOD1 201752Z 18011KT 32/24 A2974 RMK A01 T03230236  RH  060%=      5-min Rain = 0
KOD1 201753Z 19010KT 32/24 A2974 RMK A01 T03200235  RH  061%=      5-min Rain = 0
KOD1 201754Z 18009KT 32/24 A2974 RMK A01 T03200238  RH  062%=      5-min Rain = 0
KOD1 201755Z 15011KT 32/24 A2974 RMK A01 T03220239  RH  062%=      5-min Rain = 0
KOD1 201756Z 15013KT 32/23 A2974 RMK A01 T03230233  RH  059%=      5-min Rain = 0
KOD1 201757Z 14014KT 32/23 A2974 RMK A01 T03240233  RH  059%=      5-min Rain = 0
KOD1 201758Z 15012KT 33/24 A2974 RMK A01 T03260236  RH  059%=      5-min Rain = 0
KOD1 201759Z 17010KT 33/24 A2974 RMK A01 T03280238  RH  059%=      5-min Rain = 0
KOD1 201800Z 18010KT 33/24 A2974 RMK A01 T03280237  RH  059%=      5-min Rain = 0
KOD1 201801Z 18007KT 33/24 A2974 RMK A01 T03260240  RH  061%=      5-min Rain = 0
KOD1 201802Z 17007KT 33/24 A2974 RMK A01 T03270244  RH  062%=      5-min Rain = 0
KOD1 201803Z 16008KT 33/24 A2974 RMK A01 T03290240  RH  060%=      5-min Rain = 0
KOD1 201804Z 16008KT 33/23 A2974 RMK A01 T03280234  RH  058%=      5-min Rain = 0
KOD1 201805Z 17009KT 33/23 A2974 RMK A01 T03260233  RH  058%=      5-min Rain = 0
KOD1 201806Z 18008KT 33/23 A2974 RMK A01 T03250233  RH  058%=      5-min Rain = 0
KOD1 201807Z 17007KT 33/23 A2974 RMK A01 T03250233  RH  058%=      5-min Rain = 0
KOD1 201808Z 17009KT 33/23 A2974 RMK A01 T03250232  RH  058%=      5-min Rain = 0
KOD1 201809Z 17011KT 33/23 A2974 RMK A01 T03250233  RH  058%=      5-min Rain = 0
KOD1 201810Z 18011KT 33/23 A2974 RMK A01 T03270228  RH  056%=      5-min Rain = 0
KOD1 201811Z 18009KT 33/23 A2974 RMK A01 T03270229  RH  056%=      5-min Rain = 0
KOD1 201812Z 19011KT 33/23 A2974 RMK A01 T03280230  RH  056%=      5-min Rain = 0
KOD1 201813Z 19011KT 33/22 A2974 RMK A01 T03270224  RH  055%=      5-min Rain = 0
KOD1 201814Z 19011KT 33/22 A2974 RMK A01 T03260222  RH  055%=      5-min Rain = 0
KOD1 201815Z 19011KT 33/22 A2974 RMK A01 T03250223  RH  055%=      5-min Rain = 0
KOD1 201816Z 19009KT 33/22 A2974 RMK A01 T03250223  RH  055%=      5-min Rain = 0
KOD1 201817Z 20010KT 32/23 A2974 RMK A01 T03240227  RH  057%=      5-min Rain = 0
KOD1 201818Z 21009KT 32/23 A2974 RMK A01 T03240227  RH  057%=      5-min Rain = 0
KOD1 201819Z 21008KT 32/23 A2974 RMK A01 T03230231  RH  058%=      5-min Rain = 0
KOD1 201820Z 20006KT 32/23 A2974 RMK A01 T03240231  RH  058%=      5-min Rain = 0
KOD1 201821Z 19007KT 32/23 A2974 RMK A01 T03240232  RH  058%=      5-min Rain = 0
KOD1 201822Z 17007KT 33/24 A2974 RMK A01 T03260236  RH  059%=      5-min Rain = 0
KOD1 201823Z 20008KT 33/23 A2974 RMK A01 T03290234  RH  058%=      5-min Rain = 0
KOD1 201824Z 20008KT 33/23 A2974 RMK A01 T03290233  RH  057%=      5-min Rain = 0
KOD1 201825Z 21010KT 33/23 A2974 RMK A01 T03290231  RH  056%=      5-min Rain = 0
KOD1 201826Z 20013KT 33/23 A2974 RMK A01 T03270231  RH  057%=      5-min Rain = 0
KOD1 201827Z 19011KT 33/23 A2974 RMK A01 T03260228  RH  057%=      5-min Rain = 0
KOD1 201828Z 19008KT 33/23 A2974 RMK A01 T03260230  RH  057%=      5-min Rain = 0
KOD1 201829Z 19010KT 33/23 A2974 RMK A01 T03260232  RH  058%=      5-min Rain = 0
KOD1 201830Z 19013KT 33/23 A2974 RMK A01 T03270229  RH  056%=      5-min Rain = 0
KOD1 201831Z 19011KT 33/23 A2974 RMK A01 T03270225  RH  055%=      5-min Rain = 0
KOD1 201832Z 19010KT 33/22 A2974 RMK A01 T03260223  RH  055%=      5-min Rain = 0
KOD1 201833Z 20007KT 33/23 A2974 RMK A01 T03260226  RH  055%=      5-min Rain = 0
KOD1 201834Z 21009KT 33/23 A2973 RMK A01 T03260226  RH  056%=      5-min Rain = 0
KOD1 201835Z 21009KT 33/23 A2973 RMK A01 T03260225  RH  055%=      5-min Rain = 0
KOD1 201836Z 20008KT 33/23 A2974 RMK A01 T03260225  RH  055%=      5-min Rain = 0
KOD1 201837Z 21007KT 33/23 A2974 RMK A01 T03270227  RH  056%=      5-min Rain = 0
KOD1 201838Z 20008KT 33/23 A2973 RMK A01 T03290233  RH  057%=      5-min Rain = 0
KOD1 201839Z 21010KT 33/23 A2973 RMK A01 T03310233  RH  056%=      5-min Rain = 0
KOD1 201840Z 22008KT 33/23 A2973 RMK A01 T03290226  RH  055%=      5-min Rain = 0
KOD1 201841Z 22007KT 33/23 A2973 RMK A01 T03290231  RH  056%=      5-min Rain = 0
KOD1 201842Z 19007KT 33/23 A2973 RMK A01 T03290230  RH  056%=      5-min Rain = 0
KOD1 201843Z 17006KT 33/23 A2973 RMK A01 T03290227  RH  055%=      5-min Rain = 0
KOD1 201844Z 18007KT 33/23 A2973 RMK A01 T03290230  RH  056%=      5-min Rain = 0
KOD1 201845Z 18006KT 33/23 A2973 RMK A01 T03300228  RH  055%=      5-min Rain = 0
KOD1 201846Z 19009KT 33/23 A2973 RMK A01 T03310231  RH  056%=      5-min Rain = 0
KOD1 201847Z 17009KT 33/23 A2973 RMK A01 T03320232  RH  056%=      5-min Rain = 0
KOD1 201848Z 17009KT 33/23 A2973 RMK A01 T03340234  RH  056%=      5-min Rain = 0
KOD1 201849Z 18009KT 33/23 A2973 RMK A01 T03340231  RH  055%=      5-min Rain = 0
KOD1 201850Z 18006KT 33/23 A2973 RMK A01 T03340233  RH  056%=      5-min Rain = 0
KOD1 201851Z 19006KT 34/24 A2973 RMK A01 T03370236  RH  056%=      5-min Rain = 0
KOD1 201852Z 20008KT 34/22 A2973 RMK A01 T03360222  RH  051%=      5-min Rain = 0
KOD1 201853Z 20010KT 33/23 A2973 RMK A01 T03330227  RH  054%=      5-min Rain = 0
KOD1 201854Z 20011KT 33/23 A2973 RMK A01 T03330228  RH  054%=      5-min Rain = 0
KOD1 201855Z 19010KT 33/23 A2973 RMK A01 T03330227  RH  054%=      5-min Rain = 0
KOD1 201856Z 17012KT 33/22 A2973 RMK A01 T03320221  RH  052%=      5-min Rain = 0
KOD1 201857Z 17010KT 33/22 A2973 RMK A01 T03320220  RH  052%=      5-min Rain = 0
KOD1 201858Z 18010KT 33/22 A2973 RMK A01 T03310224  RH  053%=      5-min Rain = 0
KOD1 201859Z 17011KT 33/22 A2973 RMK A01 T03330223  RH  052%=      5-min Rain = 0
KOD1 201900Z 17009KT 33/22 A2973 RMK A01 T03330220  RH  052%=      5-min Rain = 0
KOD1 201901Z 17008KT 33/22 A2973 RMK A01 T03330219  RH  051%=      5-min Rain = 0
KOD1 201902Z 20008KT 33/22 A2973 RMK A01 T03330221  RH  052%=      5-min Rain = 0
KOD1 201903Z 19009KT 33/22 A2973 RMK A01 T03320221  RH  052%=      5-min Rain = 0
KOD1 201904Z 17009KT 33/22 A2973 RMK A01 T03320223  RH  053%=      5-min Rain = 0
KOD1 201905Z 19007KT 33/22 A2973 RMK A01 T03330222  RH  052%=      5-min Rain = 0
KOD1 201906Z 18011KT 33/22 A2973 RMK A01 T03330224  RH  053%=      5-min Rain = 0
KOD1 201907Z 19011KT 33/22 A2973 RMK A01 T03330224  RH  053%=      5-min Rain = 0
KOD1 201908Z 18011KT 33/22 A2973 RMK A01 T03320222  RH  052%=      5-min Rain = 0
KOD1 201909Z 18009KT 33/22 A2973 RMK A01 T03320218  RH  051%=      5-min Rain = 0
KOD1 201910Z 16007KT 33/22 A2973 RMK A01 T03330217  RH  051%=      5-min Rain = 0
KOD1 201911Z 18007KT 33/22 A2973 RMK A01 T03340219  RH  051%=      5-min Rain = 0
KOD1 201912Z 19007KT 34/23 A2973 RMK A01 T03360226  RH  053%=      5-min Rain = 0
KOD1 201913Z 19012KT 34/22 A2973 RMK A01 T03360221  RH  051%=      5-min Rain = 0
KOD1 201914Z 19011KT 33/22 A2973 RMK A01 T03340217  RH  050%=      5-min Rain = 0
KOD1 201915Z 18010KT 33/22 A2973 RMK A01 T03330221  RH  052%=      5-min Rain = 0
KOD1 201916Z 18009KT 33/22 A2973 RMK A01 T03340218  RH  051%=      5-min Rain = 0
KOD1 201917Z 17008KT 33/22 A2973 RMK A01 T03340217  RH  050%=      5-min Rain = 0
KOD1 201918Z 17007KT 34/22 A2973 RMK A01 T03350219  RH  051%=      5-min Rain = 0
KOD1 201919Z 17008KT 34/23 A2972 RMK A01 T03370226  RH  052%=      5-min Rain = 0
KOD1 201920Z 18012KT 34/22 A2973 RMK A01 T03370223  RH  051%=      5-min Rain = 0
KOD1 201921Z 18010KT 34/22 A2973 RMK A01 T03370223  RH  052%=      5-min Rain = 0
KOD1 201922Z 17008KT 34/22 A2972 RMK A01 T03370221  RH  051%=      5-min Rain = 0
KOD1 201923Z 16008KT 34/22 A2972 RMK A01 T03370223  RH  051%=      5-min Rain = 0
KOD1 201924Z 19007KT 34/22 A2972 RMK A01 T03380220  RH  050%=      5-min Rain = 0
KOD1 201925Z 19009KT 34/22 A2972 RMK A01 T03370220  RH  051%=      5-min Rain = 0
KOD1 201926Z 19012KT 34/23 A2972 RMK A01 T03370225  RH  052%=      5-min Rain = 0
KOD1 201927Z 19011KT 34/22 A2972 RMK A01 T03360218  RH  050%=      5-min Rain = 0
KOD1 201928Z 19010KT 34/22 A2972 RMK A01 T03350219  RH  051%=      5-min Rain = 0
KOD1 201929Z 18009KT 34/23 A2972 RMK A01 T03360226  RH  052%=      5-min Rain = 0
KOD1 201930Z 18007KT 34/22 A2972 RMK A01 T03360222  RH  051%=      5-min Rain = 0
KOD1 201931Z 18009KT 34/22 A2972 RMK A01 T03370223  RH  051%=      5-min Rain = 0
KOD1 201932Z 17009KT 34/23 A2972 RMK A01 T03380226  RH  052%=      5-min Rain = 0
KOD1 201933Z 19009KT 34/23 A2972 RMK A01 T03390228  RH  052%=      5-min Rain = 0
KOD1 201934Z 19007KT 34/22 A2972 RMK A01 T03380221  RH  051%=      5-min Rain = 0
KOD1 201935Z 17007KT 34/23 A2972 RMK A01 T03390225  RH  052%=      5-min Rain = 0
KOD1 201936Z 18011KT 34/22 A2972 RMK A01 T03390222  RH  050%=      5-min Rain = 0
KOD1 201937Z 17011KT 34/22 A2972 RMK A01 T03400216  RH  049%=      5-min Rain = 0
KOD1 201938Z 16010KT 34/21 A2972 RMK A01 T03400214  RH  048%=      5-min Rain = 0
KOD1 201939Z 17012KT 34/22 A2972 RMK A01 T03400219  RH  049%=      5-min Rain = 0
KOD1 201940Z 17010KT 34/22 A2972 RMK A01 T03400218  RH  049%=      5-min Rain = 0
KOD1 201941Z 17009KT 34/22 A2972 RMK A01 T03390218  RH  049%=      5-min Rain = 0
KOD1 201942Z 17007KT 34/22 A2972 RMK A01 T03390217  RH  049%=      5-min Rain = 0
KOD1 201943Z 17009KT 34/22 A2972 RMK A01 T03390224  RH  051%=      5-min Rain = 0
KOD1 201944Z 18009KT 34/22 A2972 RMK A01 T03410223  RH  050%=      5-min Rain = 0
KOD1 201945Z 19007KT 34/23 A2972 RMK A01 T03420225  RH  051%=      5-min Rain = 0
KOD1 201946Z 18009KT 34/22 A2972 RMK A01 T03420223  RH  050%=      5-min Rain = 0
KOD1 201947Z 18009KT 34/23 A2972 RMK A01 T03430225  RH  050%=      5-min Rain = 0
KOD1 201948Z 19009KT 34/22 A2972 RMK A01 T03430220  RH  049%=      5-min Rain = 0
KOD1 201949Z 17009KT 34/22 A2972 RMK A01 T03430222  RH  049%=      5-min Rain = 0
KOD1 201950Z 17012KT 34/22 A2972 RMK A01 T03440219  RH  048%=      5-min Rain = 0
KOD1 201951Z 18011KT 34/21 A2972 RMK A01 T03430214  RH  047%=      5-min Rain = 0
KOD1 201952Z 18012KT 34/22 A2972 RMK A01 T03430218  RH  048%=      5-min Rain = 0
KOD1 201953Z 19011KT 34/22 A2972 RMK A01 T03410219  RH  049%=      5-min Rain = 0
KOD1 201954Z 19012KT 34/21 A2972 RMK A01 T03400212  RH  047%=      5-min Rain = 0
KOD1 201955Z 20010KT 34/22 A2972 RMK A01 T03390220  RH  050%=      5-min Rain = 0
KOD1 201956Z 20010KT 34/22 A2972 RMK A01 T03400218  RH  049%=      5-min Rain = 0
KOD1 201957Z 20010KT 34/22 A2972 RMK A01 T03400216  RH  048%=      5-min Rain = 0
KOD1 201958Z 18010KT 34/22 A2972 RMK A01 T03410219  RH  049%=      5-min Rain = 0
KOD1 201959Z 18011KT 34/22 A2972 RMK A01 T03430222  RH  049%=      5-min Rain = 0
KOD1 202000Z 18010KT 34/21 A2972 RMK A01 T03440214  RH  047%=      5-min Rain = 0
KOD1 202001Z 18010KT 34/22 A2972 RMK A01 T03440215  RH  047%=      5-min Rain = 0
KOD1 202002Z 18012KT 34/22 A2972 RMK A01 T03430215  RH  047%=      5-min Rain = 0
KOD1 202003Z 18011KT 34/21 A2972 RMK A01 T03430212  RH  046%=      5-min Rain = 0
KOD1 202004Z 19010KT 34/21 A2972 RMK A01 T03430213  RH  047%=      5-min Rain = 0
KOD1 202005Z 19009KT 34/22 A2972 RMK A01 T03430219  RH  049%=      5-min Rain = 0
KOD1 202006Z 18009KT 34/22 A2972 RMK A01 T03440218  RH  048%=      5-min Rain = 0
KOD1 202007Z 18009KT 35/22 A2972 RMK A01 T03450217  RH  048%=      5-min Rain = 0
KOD1 202008Z 18011KT 35/22 A2972 RMK A01 T03450215  RH  047%=      5-min Rain = 0
KOD1 202009Z 20011KT 35/22 A2972 RMK A01 T03450215  RH  047%=      5-min Rain = 0
KOD1 202010Z 20009KT 34/21 A2972 RMK A01 T03440214  RH  047%=      5-min Rain = 0
KOD1 202011Z 20009KT 35/22 A2972 RMK A01 T03450218  RH  048%=      5-min Rain = 0
KOD1 202012Z 19008KT 35/22 A2972 RMK A01 T03450218  RH  048%=      5-min Rain = 0
KOD1 202013Z 18010KT 35/22 A2972 RMK A01 T03460224  RH  049%=      5-min Rain = 0
KOD1 202014Z 18012KT 35/22 A2972 RMK A01 T03460219  RH  048%=      5-min Rain = 0
KOD1 202015Z 18010KT 35/22 A2972 RMK A01 T03450219  RH  048%=      5-min Rain = 0
KOD1 202016Z 18010KT 34/22 A2972 RMK A01 T03440220  RH  048%=      5-min Rain = 0
KOD1 202017Z 16009KT 35/22 A2972 RMK A01 T03450219  RH  048%=      5-min Rain = 0
KOD1 202018Z 16010KT 35/22 A2972 RMK A01 T03460218  RH  047%=      5-min Rain = 0
KOD1 202019Z 17009KT 35/22 A2972 RMK A01 T03470221  RH  048%=      5-min Rain = 0
KOD1 202020Z 18009KT 35/22 A2972 RMK A01 T03490221  RH  048%=      5-min Rain = 0
KOD1 202021Z 17009KT 35/22 A2971 RMK A01 T03490223  RH  048%=      5-min Rain = 0
KOD1 202022Z 18010KT 35/22 A2971 RMK A01 T03500221  RH  047%=      5-min Rain = 0
KOD1 202023Z 17010KT 35/22 A2972 RMK A01 T03490218  RH  047%=      5-min Rain = 0
KOD1 202024Z 18010KT 35/22 A2972 RMK A01 T03490217  RH  046%=      5-min Rain = 0
KOD1 202025Z 18008KT 35/22 A2971 RMK A01 T03490215  RH  046%=      5-min Rain = 0
KOD1 202026Z 18007KT 35/22 A2971 RMK A01 T03490219  RH  047%=      5-min Rain = 0
KOD1 202027Z 18008KT 35/22 A2971 RMK A01 T03500220  RH  047%=      5-min Rain = 0
KOD1 202028Z 18008KT 35/22 A2971 RMK A01 T03500224  RH  048%=      5-min Rain = 0
KOD1 202029Z 18008KT 35/22 A2971 RMK A01 T03510220  RH  047%=      5-min Rain = 0
KOD1 202030Z 17011G16KT 35/22 A2971 RMK A01 T03500217  RH  046%=      5-min Rain = 0
KOD1 202031Z 19013KT 35/22 A2971 RMK A01 T03500215  RH  046%=      5-min Rain = 0
KOD1 202032Z 18010KT 35/22 A2971 RMK A01 T03490217  RH  046%=      5-min Rain = 0
KOD1 202033Z 18009KT 35/22 A2971 RMK A01 T03490215  RH  046%=      5-min Rain = 0
KOD1 202034Z 16008KT 35/21 A2971 RMK A01 T03490213  RH  045%=      5-min Rain = 0
KOD1 202035Z 18009G14KT 35/21 A2971 RMK A01 T03490212  RH  045%=      5-min Rain = 0
KOD1 202036Z 17011KT 35/22 A2971 RMK A01 T03500216  RH  046%=      5-min Rain = 0
KOD1 202037Z 17010KT 35/22 A2971 RMK A01 T03520218  RH  046%=      5-min Rain = 0
KOD1 202038Z 18011KT 35/22 A2971 RMK A01 T03520216  RH  045%=      5-min Rain = 0
KOD1 202039Z 18008KT 35/22 A2971 RMK A01 T03510220  RH  047%=      5-min Rain = 0
KOD1 202040Z 16009G14KT 35/23 A2971 RMK A01 T03520227  RH  048%=      5-min Rain = 0
KOD1 202041Z 16012KT 35/22 A2971 RMK A01 T03530222  RH  047%=      5-min Rain = 0
KOD1 202042Z 16011KT 35/22 A2971 RMK A01 T03530219  RH  046%=      5-min Rain = 0
KOD1 202043Z 15011KT 35/22 A2971 RMK A01 T03540220  RH  046%=      5-min Rain = 0
KOD1 202044Z 16014KT 36/22 A2971 RMK A01 T03560217  RH  045%=      5-min Rain = 0
KOD1 202045Z 16013KT 36/22 A2971 RMK A01 T03550215  RH  044%=      5-min Rain = 0
KOD1 202046Z 16013KT 36/21 A2971 RMK A01 T03550214  RH  044%=      5-min Rain = 0
KOD1 202047Z 17008KT 36/22 A2971 RMK A01 T03550220  RH  046%=      5-min Rain = 0
KOD1 202048Z 16015KT 36/22 A297 RMK A01 T03560217  RH  045%=      5-min Rain = 0
KOD1 202049Z 17013KT 36/21 A297 RMK A01 T03560211  RH  043%=      5-min Rain = 0
KOD1 202050Z 17012KT 35/21 A297 RMK A01 T03540212  RH  044%=      5-min Rain = 0
KOD1 202051Z 18012KT 35/21 A297 RMK A01 T03540214  RH  044%=      5-min Rain = 0
KOD1 202052Z 18013KT 35/22 A297 RMK A01 T03540218  RH  045%=      5-min Rain = 0
KOD1 202053Z 16010KT 35/22 A297 RMK A01 T03530220  RH  046%=      5-min Rain = 0
KOD1 202054Z 14012KT 35/22 A297 RMK A01 T03540222  RH  046%=      5-min Rain = 0
KOD1 202055Z 14011KT 36/22 A297 RMK A01 T03550219  RH  045%=      5-min Rain = 0
KOD1 202056Z 14009KT 36/22 A297 RMK A01 T03560219  RH  045%=      5-min Rain = 0
KOD1 202057Z 16011KT 36/23 A297 RMK A01 T03590226  RH  047%=      5-min Rain = 0
KOD1 202058Z 18010KT 36/22 A297 RMK A01 T03580224  RH  046%=      5-min Rain = 0
KOD1 202059Z 17010KT 36/22 A297 RMK A01 T03570222  RH  046%=      5-min Rain = 0
KOD1 202100Z 16011KT 36/22 A297 RMK A01 T03550219  RH  045%=      5-min Rain = 0
KOD1 202101Z 15008KT 36/22 A297 RMK A01 T03560223  RH  046%=      5-min Rain = 0
KOD1 202102Z 14008KT 36/22 A297 RMK A01 T03570221  RH  045%=      5-min Rain = 0
KOD1 202103Z 16009KT 36/23 A297 RMK A01 T03580225  RH  046%=      5-min Rain = 0
KOD1 202104Z 16010KT 36/23 A297 RMK A01 T03580226  RH  047%=      5-min Rain = 0
KOD1 202105Z 17009KT 36/22 A297 RMK A01 T03580224  RH  046%=      5-min Rain = 0
KOD1 202106Z 17010KT 36/22 A297 RMK A01 T03580223  RH  046%=      5-min Rain = 0
KOD1 202107Z 17010KT 36/23 A297 RMK A01 T03580226  RH  047%=      5-min Rain = 0
KOD1 202108Z 15010KT 36/23 A297 RMK A01 T03580227  RH  047%=      5-min Rain = 0
KOD1 202109Z 14014KT 36/22 A297 RMK A01 T03610220  RH  044%=      5-min Rain = 0
KOD1 202110Z 15011KT 36/22 A297 RMK A01 T03610217  RH  044%=      5-min Rain = 0
KOD1 202111Z 16008KT 36/23 A297 RMK A01 T03600227  RH  046%=      5-min Rain = 0
KOD1 202112Z 17009KT 36/23 A297 RMK A01 T03610231  RH  047%=      5-min Rain = 0
KOD1 202113Z 16010KT 36/23 A297 RMK A01 T03620229  RH  047%=      5-min Rain = 0
KOD1 202114Z 16011KT 36/23 A2969 RMK A01 T03620226  RH  045%=      5-min Rain = 0
KOD1 202115Z 17011KT 36/23 A2969 RMK A01 T03620227  RH  046%=      5-min Rain = 0
KOD1 202116Z 19011KT 36/22 A2969 RMK A01 T03610219  RH  044%=      5-min Rain = 0
KOD1 202117Z 17012KT 36/22 A2969 RMK A01 T03590220  RH  045%=      5-min Rain = 0
KOD1 202118Z 16012KT 36/21 A2969 RMK A01 T03590214  RH  043%=      5-min Rain = 0
KOD1 202119Z 17014KT 36/21 A2969 RMK A01 T03590211  RH  042%=      5-min Rain = 0
KOD1 202120Z 18013KT 36/20 A2969 RMK A01 T03600201  RH  040%=      5-min Rain = 0
KOD1 202121Z 18013KT 36/20 A2969 RMK A01 T03590196  RH  039%=      5-min Rain = 0
KOD1 202122Z 18012KT 36/20 A2969 RMK A01 T03580198  RH  039%=      5-min Rain = 0
KOD1 202123Z 18010KT 36/21 A2969 RMK A01 T03570205  RH  041%=      5-min Rain = 0
KOD1 202124Z 19010KT 36/21 A2969 RMK A01 T03580209  RH  042%=      5-min Rain = 0
KOD1 202125Z 19012KT 36/21 A2969 RMK A01 T03580205  RH  041%=      5-min Rain = 0
KOD1 202126Z 19011KT 36/20 A2969 RMK A01 T03570203  RH  041%=      5-min Rain = 0
KOD1 202127Z 18011KT 36/21 A2969 RMK A01 T03570209  RH  042%=      5-min Rain = 0
KOD1 202128Z 19011KT 36/21 A2969 RMK A01 T03580211  RH  042%=      5-min Rain = 0
KOD1 202129Z 19010KT 36/21 A2969 RMK A01 T03580209  RH  042%=      5-min Rain = 0
KOD1 202130Z 19012KT 36/21 A2969 RMK A01 T03580209  RH  042%=      5-min Rain = 0
KOD1 202131Z 18012KT 36/21 A2969 RMK A01 T03580208  RH  042%=      5-min Rain = 0
KOD1 202132Z 18009KT 36/21 A2969 RMK A01 T03580207  RH  041%=      5-min Rain = 0
KOD1 202133Z 16013KT 36/20 A2969 RMK A01 T03590203  RH  040%=      5-min Rain = 0
KOD1 202134Z 17012KT 36/19 A2969 RMK A01 T03600194  RH  038%=      5-min Rain = 0
KOD1 202135Z 18010KT 36/20 A2969 RMK A01 T03610202  RH  040%=      5-min Rain = 0
KOD1 202136Z 18011KT 36/21 A2969 RMK A01 T03620207  RH  041%=      5-min Rain = 0
KOD1 202137Z 17014KT 36/21 A2969 RMK A01 T03620209  RH  041%=      5-min Rain = 0
KOD1 202138Z 17014KT 36/21 A2968 RMK A01 T03610208  RH  041%=      5-min Rain = 0
KOD1 202139Z 18011KT 36/21 A2968 RMK A01 T03600211  RH  042%=      5-min Rain = 0
KOD1 202140Z 17009KT 36/22 A2968 RMK A01 T03600218  RH  044%=      5-min Rain = 0
KOD1 202141Z 15011KT 36/22 A2968 RMK A01 T03620215  RH  043%=      5-min Rain = 0
KOD1 202142Z 15010KT 36/21 A2968 RMK A01 T03630213  RH  042%=      5-min Rain = 0
KOD1 202143Z 16012KT 37/21 A2968 RMK A01 T03660210  RH  040%=      5-min Rain = 0
KOD1 202144Z 17014KT 37/21 A2968 RMK A01 T03670208  RH  040%=      5-min Rain = 0
KOD1 202145Z 18012KT 36/21 A2968 RMK A01 T03640209  RH  041%=      5-min Rain = 0
KOD1 202146Z 18010KT 36/20 A2968 RMK A01 T03620203  RH  040%=      5-min Rain = 0
KOD1 202147Z 18008KT 36/21 A2968 RMK A01 T03610213  RH  042%=      5-min Rain = 0
KOD1 202148Z 17009KT 36/22 A2968 RMK A01 T03610220  RH  044%=      5-min Rain = 0
KOD1 202149Z 15011KT 36/22 A2968 RMK A01 T03620216  RH  043%=      5-min Rain = 0
KOD1 202150Z 15015KT 36/21 A2968 RMK A01 T03640205  RH  040%=      5-min Rain = 0
KOD1 202151Z 16014G19KT 36/21 A2968 RMK A01 T03640205  RH  040%=      5-min Rain = 0
KOD1 202152Z 17012KT 36/21 A2968 RMK A01 T03630207  RH  040%=      5-min Rain = 0
KOD1 202153Z 16011KT 36/21 A2968 RMK A01 T03620211  RH  041%=      5-min Rain = 0
KOD1 202154Z 17010KT 36/22 A2968 RMK A01 T03640215  RH  042%=      5-min Rain = 0
KOD1 202155Z 16011KT 36/21 A2968 RMK A01 T03630210  RH  041%=      5-min Rain = 0
KOD1 202156Z 16010KT 36/21 A2968 RMK A01 T03630210  RH  041%=      5-min Rain = 0
KOD1 202157Z 15010KT 36/21 A2968 RMK A01 T03640208  RH  040%=      5-min Rain = 0
KOD1 202158Z 15009KT 37/21 A2968 RMK A01 T03650209  RH  040%=      5-min Rain = 0
KOD1 202159Z 17012KT 37/22 A2968 RMK A01 T03670217  RH  042%=      5-min Rain = 0
KOD1 202200Z 17015KT 37/21 A2968 RMK A01 T03660209  RH  040%=      5-min Rain = 0
KOD1 202201Z 17015KT 36/20 A2968 RMK A01 T03640202  RH  039%=      5-min Rain = 0
KOD1 202202Z 16014KT 36/21 A2968 RMK A01 T03630206  RH  040%=      5-min Rain = 0
KOD1 202203Z 16015KT 36/21 A2968 RMK A01 T03620206  RH  040%=      5-min Rain = 0
KOD1 202204Z 17012KT 36/21 A2968 RMK A01 T03630208  RH  041%=      5-min Rain = 0
KOD1 202205Z 17012KT 36/21 A2968 RMK A01 T03620209  RH  041%=      5-min Rain = 0
KOD1 202206Z 17012KT 36/20 A2968 RMK A01 T03620204  RH  040%=      5-min Rain = 0
KOD1 202207Z 17011KT 36/21 A2968 RMK A01 T03620207  RH  041%=      5-min Rain = 0
KOD1 202208Z 15013KT 36/21 A2968 RMK A01 T03630207  RH  040%=      5-min Rain = 0
KOD1 202209Z 14014KT 36/20 A2968 RMK A01 T03640202  RH  039%=      5-min Rain = 0
KOD1 202210Z 14010KT 37/20 A2968 RMK A01 T03650202  RH  039%=      5-min Rain = 0
KOD1 202211Z 16010KT 37/21 A2968 RMK A01 T03670213  RH  041%=      5-min Rain = 0
KOD1 202212Z 16009KT 37/21 A2968 RMK A01 T03670214  RH  041%=      5-min Rain = 0
KOD1 202213Z 16014KT 37/22 A2968 RMK A01 T03670217  RH  042%=      5-min Rain = 0
KOD1 202214Z 17012KT 37/22 A2968 RMK A01 T03650215  RH  042%=      5-min Rain = 0
KOD1 202215Z 17009KT 37/22 A2968 RMK A01 T03650217  RH  042%=      5-min Rain = 0
KOD1 202216Z 16012KT 37/22 A2968 RMK A01 T03650215  RH  042%=      5-min Rain = 0
KOD1 202217Z 15012KT 37/21 A2968 RMK A01 T03660207  RH  040%=      5-min Rain = 0
KOD1 202218Z 15013KT 37/21 A2968 RMK A01 T03670207  RH  039%=      5-min Rain = 0
KOD1 202219Z 17010KT 37/21 A2968 RMK A01 T03690214  RH  041%=      5-min Rain = 0
KOD1 202220Z 16013KT 37/21 A2968 RMK A01 T03690214  RH  041%=      5-min Rain = 0
KOD1 202221Z 17017KT 37/21 A2968 RMK A01 T03670207  RH  039%=      5-min Rain = 0
KOD1 202222Z 16016KT 37/21 A2968 RMK A01 T03650205  RH  040%=      5-min Rain = 0
KOD1 202223Z 16013KT 36/21 A2968 RMK A01 T03640207  RH  040%=      5-min Rain = 0
KOD1 202224Z 17013KT 36/21 A2968 RMK A01 T03640210  RH  041%=      5-min Rain = 0
KOD1 202225Z 16012KT 36/21 A2968 RMK A01 T03630214  RH  042%=      5-min Rain = 0
KOD1 202226Z 14015KT 36/21 A2968 RMK A01 T03640211  RH  041%=      5-min Rain = 0
KOD1 202227Z 14015KT 37/21 A2968 RMK A01 T03660208  RH  040%=      5-min Rain = 0
KOD1 202228Z 14015KT 37/21 A2968 RMK A01 T03680209  RH  040%=      5-min Rain = 0
KOD1 202229Z 15012KT 37/21 A2968 RMK A01 T03690213  RH  040%=      5-min Rain = 0
KOD1 202230Z 15013KT 37/21 A2968 RMK A01 T03700213  RH  040%=      5-min Rain = 0
KOD1 202231Z 17012KT 37/21 A2968 RMK A01 T03690214  RH  041%=      5-min Rain = 0
KOD1 202232Z 16012KT 37/21 A2968 RMK A01 T03660214  RH  041%=      5-min Rain = 0
KOD1 202233Z 15013KT 37/21 A2967 RMK A01 T03650213  RH  042%=      5-min Rain = 0
KOD1 202234Z 15012KT 36/21 A2967 RMK A01 T03640211  RH  041%=      5-min Rain = 0
KOD1 202235Z 14011KT 37/22 A2967 RMK A01 T03660215  RH  042%=      5-min Rain = 0
KOD1 202236Z 16013KT 37/21 A2967 RMK A01 T03670211  RH  040%=      5-min Rain = 0
KOD1 202237Z 18010KT 37/22 A2967 RMK A01 T03670221  RH  043%=      5-min Rain = 0
KOD1 202238Z 17011KT 37/22 A2967 RMK A01 T03650219  RH  043%=      5-min Rain = 0
KOD1 202239Z 16011KT 36/22 A2967 RMK A01 T03640222  RH  044%=      5-min Rain = 0
KOD1 202240Z 15014KT 37/22 A2967 RMK A01 T03660219  RH  043%=      5-min Rain = 0
KOD1 202241Z 17011KT 37/22 A2967 RMK A01 T03670221  RH  043%=      5-min Rain = 0
KOD1 202242Z 15011G16KT 37/22 A2967 RMK A01 T03670224  RH  044%=      5-min Rain = 0
KOD1 202243Z 17014KT 37/22 A2967 RMK A01 T03670218  RH  042%=      5-min Rain = 0
KOD1 202244Z 17015KT 37/21 A2967 RMK A01 T03660213  RH  041%=      5-min Rain = 0
KOD1 202245Z 16015KT 36/21 A2967 RMK A01 T03640212  RH  042%=      5-min Rain = 0
KOD1 202246Z 17015KT 36/21 A2967 RMK A01 T03630212  RH  042%=      5-min Rain = 0
KOD1 202247Z 18013KT 36/21 A2967 RMK A01 T03620212  RH  042%=      5-min Rain = 0
KOD1 202248Z 17013KT 36/22 A2967 RMK A01 T03620217  RH  043%=      5-min Rain = 0
KOD1 202249Z 17012KT 36/22 A2967 RMK A01 T03620217  RH  043%=      5-min Rain = 0
KOD1 202250Z 16011KT 36/22 A2967 RMK A01 T03620217  RH  043%=      5-min Rain = 0
KOD1 202251Z 16008KT 36/22 A2967 RMK A01 T03630223  RH  045%=      5-min Rain = 0
KOD1 202252Z 15012KT 36/23 A2967 RMK A01 T03640225  RH  045%=      5-min Rain = 0
KOD1 202253Z 15011KT 37/22 A2967 RMK A01 T03650223  RH  044%=      5-min Rain = 0
KOD1 202254Z 14012KT 37/22 A2967 RMK A01 T03660223  RH  044%=      5-min Rain = 0
KOD1 202255Z 15013KT 37/23 A2967 RMK A01 T03680227  RH  044%=      5-min Rain = 0
KOD1 202256Z 16012KT 37/22 A2967 RMK A01 T03670223  RH  044%=      5-min Rain = 0
KOD1 202257Z 16010KT 37/23 A2967 RMK A01 T03660227  RH  045%=      5-min Rain = 0
KOD1 202258Z 16014KT 37/23 A2967 RMK A01 T03660226  RH  045%=      5-min Rain = 0
KOD1 202259Z 15012KT 37/23 A2967 RMK A01 T03660228  RH  045%=      5-min Rain = 0
KOD1 202300Z 14012KT 37/22 A2967 RMK A01 T03660224  RH  044%=      5-min Rain = 0
KOD1 202301Z 14012KT 37/22 A2967 RMK A01 T03660222  RH  044%=      5-min Rain = 0
KOD1 202302Z 15012KT 37/22 A2967 RMK A01 T03660223  RH  044%=      5-min Rain = 0
KOD1 202303Z 15012KT 37/22 A2967 RMK A01 T03660223  RH  044%=      5-min Rain = 0
KOD1 202304Z 16012KT 37/22 A2967 RMK A01 T03660222  RH  044%=      5-min Rain = 0
KOD1 202305Z 16015KT 37/22 A2967 RMK A01 T03650223  RH  044%=      5-min Rain = 0
KOD1 202306Z 15012KT 36/23 A2967 RMK A01 T03640225  RH  045%=      5-min Rain = 0
KOD1 202307Z 16013KT 37/22 A2967 RMK A01 T03650224  RH  044%=      5-min Rain = 0
KOD1 202308Z 17012KT 36/22 A2967 RMK A01 T03640222  RH  044%=      5-min Rain = 0
KOD1 202309Z 17009KT 36/23 A2967 RMK A01 T03630226  RH  045%=      5-min Rain = 0
KOD1 202310Z 15009KT 36/23 A2967 RMK A01 T03630227  RH  045%=      5-min Rain = 0
KOD1 202311Z 15011KT 36/22 A2967 RMK A01 T03640224  RH  045%=      5-min Rain = 0
KOD1 202312Z 15011KT 37/22 A2967 RMK A01 T03660224  RH  044%=      5-min Rain = 0
KOD1 202313Z 14012KT 37/22 A2967 RMK A01 T03660224  RH  044%=      5-min Rain = 0
KOD1 202314Z 14014KT 37/22 A2967 RMK A01 T03660221  RH  043%=      5-min Rain = 0
KOD1 202315Z 15015KT 37/22 A2967 RMK A01 T03660220  RH  043%=      5-min Rain = 0
KOD1 202316Z 16013KT 37/22 A2967 RMK A01 T03650220  RH  043%=      5-min Rain = 0
KOD1 202317Z 16011KT 36/23 A2967 RMK A01 T03640225  RH  045%=      5-min Rain = 0
KOD1 202318Z 16012KT 36/22 A2967 RMK A01 T03630223  RH  045%=      5-min Rain = 0
KOD1 202319Z 15011KT 36/22 A2967 RMK A01 T03630222  RH  044%=      5-min Rain = 0
KOD1 202320Z 14012KT 36/22 A2967 RMK A01 T03640223  RH  044%=      5-min Rain = 0
KOD1 202321Z 14012KT 37/22 A2967 RMK A01 T03650221  RH  044%=      5-min Rain = 0
KOD1 202322Z 15013KT 37/22 A2967 RMK A01 T03650220  RH  043%=      5-min Rain = 0
KOD1 202323Z 16014KT 37/22 A2967 RMK A01 T03660222  RH  043%=      5-min Rain = 0
KOD1 202324Z 15010KT 36/22 A2967 RMK A01 T03640224  RH  045%=      5-min Rain = 0
KOD1 202325Z 15011G16KT 36/23 A2967 RMK A01 T03640226  RH  045%=      5-min Rain = 0
KOD1 202326Z 15013KT 37/22 A2967 RMK A01 T03660224  RH  044%=      5-min Rain = 0
KOD1 202327Z 14012KT 37/23 A2966 RMK A01 T03660225  RH  045%=      5-min Rain = 0
KOD1 202328Z 15014KT 37/22 A2966 RMK A01 T03660224  RH  044%=      5-min Rain = 0
KOD1 202329Z 15014KT 37/22 A2966 RMK A01 T03650221  RH  044%=      5-min Rain = 0
KOD1 202330Z 16011KT 37/23 A2966 RMK A01 T03650225  RH  045%=      5-min Rain = 0
KOD1 202331Z 15013KT 37/23 A2966 RMK A01 T03650225  RH  045%=      5-min Rain = 0
KOD1 202332Z 15015KT 37/22 A2966 RMK A01 T03650222  RH  044%=      5-min Rain = 0
KOD1 202333Z 15013KT 36/22 A2966 RMK A01 T03640222  RH  044%=      5-min Rain = 0
KOD1 202334Z 15014KT 36/23 A2966 RMK A01 T03640226  RH  045%=      5-min Rain = 0
KOD1 202335Z 15014KT 36/22 A2966 RMK A01 T03640222  RH  044%=      5-min Rain = 0
KOD1 202336Z 15014KT 37/22 A2966 RMK A01 T03650222  RH  044%=      5-min Rain = 0
KOD1 202337Z 14015KT 37/22 A2966 RMK A01 T03650222  RH  044%=      5-min Rain = 0
KOD1 202338Z 15015KT 37/22 A2966 RMK A01 T03650221  RH  043%=      5-min Rain = 0
KOD1 202339Z 15015KT 37/22 A2966 RMK A01 T03660219  RH  043%=      5-min Rain = 0
KOD1 202340Z 15013KT 37/22 A2966 RMK A01 T03660220  RH  043%=      5-min Rain = 0
KOD1 202341Z 15012KT 37/22 A2966 RMK A01 T03650224  RH  044%=      5-min Rain = 0
KOD1 202342Z 15014KT 37/22 A2966 RMK A01 T03650223  RH  044%=      5-min Rain = 0
KOD1 202343Z 15013KT 37/22 A2966 RMK A01 T03650222  RH  044%=      5-min Rain = 0
KOD1 202344Z 14016KT 36/22 A2966 RMK A01 T03640219  RH  043%=      5-min Rain = 0
KOD1 202345Z 15016KT 36/22 A2966 RMK A01 T03640216  RH  042%=      5-min Rain = 0
KOD1 202346Z 15015KT 36/22 A2966 RMK A01 T03640219  RH  043%=      5-min Rain = 0
KOD1 202347Z 15016KT 36/22 A2965 RMK A01 T03640217  RH  043%=      5-min Rain = 0
KOD1 202348Z 16015KT 36/22 A2965 RMK A01 T03630217  RH  043%=      5-min Rain = 0
KOD1 202349Z 15016KT 36/22 A2965 RMK A01 T03620217  RH  043%=      5-min Rain = 0
KOD1 202350Z 15015KT 36/22 A2965 RMK A01 T03620218  RH  043%=      5-min Rain = 0
KOD1 202351Z 14016KT 36/22 A2965 RMK A01 T03620215  RH  043%=      5-min Rain = 0
KOD1 202352Z 15015KT 36/22 A2965 RMK A01 T03620218  RH  043%=      5-min Rain = 0
KOD1 202353Z 15015KT 36/22 A2965 RMK A01 T03620220  RH  044%=      5-min Rain = 0
KOD1 202354Z 15014KT 36/22 A2965 RMK A01 T03620222  RH  044%=      5-min Rain = 0
KOD1 202355Z 15015KT 36/22 A2965 RMK A01 T03620220  RH  044%=      5-min Rain = 0
KOD1 202356Z 15014KT 36/22 A2965 RMK A01 T03630218  RH  043%=      5-min Rain = 0
KOD1 202357Z 15013KT 36/22 A2965 RMK A01 T03630218  RH  043%=      5-min Rain = 0
KOD1 202358Z 15016KT 36/22 A2965 RMK A01 T03630218  RH  043%=      5-min Rain = 0
KOD1 202359Z 15015KT 36/22 A2965 RMK A01 T03630217  RH  043%=      5-min Rain = 0
KOD1 210000Z 15014KT 36/22 A2965 RMK A01 T03630223  RH  045%=      5-min Rain = 0
KOD1 210001Z 14013KT 36/22 A2965 RMK A01 T03620224  RH  045%=      5-min Rain = 0
KOD1 210002Z 14015KT 36/23 A2965 RMK A01 T03620225  RH  045%=      5-min Rain = 0
KOD1 210003Z 15014KT 36/23 A2965 RMK A01 T03620225  RH  045%=      5-min Rain = 0
KOD1 210004Z 14012KT 36/23 A2965 RMK A01 T03610227  RH  046%=      5-min Rain = 0
KOD1 210005Z 15014KT 36/23 A2965 RMK A01 T03610228  RH  046%=      5-min Rain = 0
KOD1 210006Z 14013KT 36/23 A2965 RMK A01 T03610227  RH  046%=      5-min Rain = 0
KOD1 210007Z 15014KT 36/23 A2965 RMK A01 T03610228  RH  046%=      5-min Rain = 0
KOD1 210008Z 14013KT 36/23 A2965 RMK A01 T03600227  RH  046%=      5-min Rain = 0
KOD1 210009Z 15012KT 36/23 A2965 RMK A01 T03600229  RH  047%=      5-min Rain = 0
KOD1 210010Z 14014KT 36/23 A2965 RMK A01 T03600227  RH  046%=      5-min Rain = 0
KOD1 210011Z 15017G22KT 36/23 A2965 RMK A01 T03600225  RH  046%=      5-min Rain = 0
KOD1 210012Z 15015KT 36/23 A2965 RMK A01 T03600227  RH  046%=      5-min Rain = 0
KOD1 210013Z 15014KT 36/23 A2965 RMK A01 T03590227  RH  047%=      5-min Rain = 0
KOD1 210014Z 14014KT 36/23 A2965 RMK A01 T03600228  RH  047%=      5-min Rain = 0
KOD1 210015Z 15014KT 36/23 A2965 RMK A01 T03600228  RH  047%=      5-min Rain = 0
KOD1 210016Z 15014KT 36/23 A2965 RMK A01 T03600229  RH  047%=      5-min Rain = 0
KOD1 210017Z 15013KT 36/23 A2965 RMK A01 T03600231  RH  048%=      5-min Rain = 0
KOD1 210018Z 15011KT 36/23 A2965 RMK A01 T03600233  RH  048%=      5-min Rain = 0
KOD1 210019Z 15012KT 36/23 A2965 RMK A01 T03590234  RH  049%=      5-min Rain = 0
KOD1 210020Z 15015KT 36/23 A2965 RMK A01 T03590232  RH  048%=      5-min Rain = 0
KOD1 210021Z 15015KT 36/23 A2965 RMK A01 T03580232  RH  048%=      5-min Rain = 0
KOD1 210022Z 15013KT 36/24 A2965 RMK A01 T03580235  RH  049%=      5-min Rain = 0
KOD1 210023Z 15013KT 36/24 A2965 RMK A01 T03580236  RH  050%=      5-min Rain = 0
KOD1 210024Z 15014KT 36/24 A2965 RMK A01 T03570236  RH  050%=      5-min Rain = 0
KOD1 210025Z 15014KT 36/24 A2965 RMK A01 T03570235  RH  050%=      5-min Rain = 0
KOD1 210026Z 15015KT 36/24 A2965 RMK A01 T03570237  RH  050%=      5-min Rain = 0
KOD1 210027Z 15015KT 36/24 A2965 RMK A01 T03560237  RH  050%=      5-min Rain = 0
KOD1 210028Z 14015KT 36/24 A2965 RMK A01 T03560238  RH  051%=      5-min Rain = 0
KOD1 210029Z 14014KT 36/24 A2965 RMK A01 T03560239  RH  051%=      5-min Rain = 0
KOD1 210030Z 14015KT 36/24 A2965 RMK A01 T03550240  RH  051%=      5-min Rain = 0
KOD1 210031Z 15011KT 36/24 A2965 RMK A01 T03550242  RH  052%=      5-min Rain = 0
KOD1 210032Z 14014KT 36/24 A2965 RMK A01 T03550241  RH  052%=      5-min Rain = 0
KOD1 210033Z 14012KT 35/24 A2965 RMK A01 T03540242  RH  052%=      5-min Rain = 0
KOD1 210034Z 14013KT 35/24 A2965 RMK A01 T03540242  RH  052%=      5-min Rain = 0
KOD1 210035Z 14012KT 35/24 A2965 RMK A01 T03540243  RH  053%=      5-min Rain = 0
KOD1 210036Z 14011KT 35/24 A2965 RMK A01 T03540244  RH  053%=      5-min Rain = 0
KOD1 210037Z 14012KT 35/24 A2965 RMK A01 T03540243  RH  053%=      5-min Rain = 0
KOD1 210038Z 15011KT 35/24 A2965 RMK A01 T03540244  RH  053%=      5-min Rain = 0
KOD1 210039Z 14011KT 35/25 A2965 RMK A01 T03540245  RH  053%=      5-min Rain = 0
KOD1 210040Z 14014KT 35/24 A2965 RMK A01 T03530244  RH  053%=      5-min Rain = 0
KOD1 210041Z 14011KT 35/24 A2965 RMK A01 T03530244  RH  053%=      5-min Rain = 0
KOD1 210042Z 14012KT 35/25 A2965 RMK A01 T03520245  RH  054%=      5-min Rain = 0
KOD1 210043Z 14013KT 35/25 A2965 RMK A01 T03520245  RH  054%=      5-min Rain = 0
KOD1 210044Z 14014KT 35/24 A2965 RMK A01 T03520244  RH  054%=      5-min Rain = 0
KOD1 210045Z 15015KT 35/24 A2965 RMK A01 T03520244  RH  054%=      5-min Rain = 0
KOD1 210046Z 14012KT 35/24 A2965 RMK A01 T03520243  RH  053%=      5-min Rain = 0
KOD1 210047Z 14013KT 35/25 A2965 RMK A01 T03510245  RH  054%=      5-min Rain = 0
KOD1 210048Z 14014KT 35/24 A2965 RMK A01 T03510244  RH  054%=      5-min Rain = 0
KOD1 210049Z 14012KT 35/25 A2965 RMK A01 T03510245  RH  054%=      5-min Rain = 0
KOD1 210050Z 14012KT 35/25 A2965 RMK A01 T03510246  RH  055%=      5-min Rain = 0
KOD1 210051Z 14013KT 35/25 A2965 RMK A01 T03500245  RH  055%=      5-min Rain = 0
KOD1 210052Z 14013KT 35/25 A2965 RMK A01 T03500246  RH  055%=      5-min Rain = 0
KOD1 210053Z 14011KT 35/25 A2965 RMK A01 T03500247  RH  055%=      5-min Rain = 0
KOD1 210054Z 14014KT 35/25 A2965 RMK A01 T03500247  RH  055%=      5-min Rain = 0
KOD1 210055Z 14012KT 35/25 A2965 RMK A01 T03490248  RH  056%=      5-min Rain = 0
KOD1 210056Z 14015KT 35/25 A2965 RMK A01 T03480247  RH  056%=      5-min Rain = 0
KOD1 210057Z 13013KT 35/25 A2965 RMK A01 T03480247  RH  056%=      5-min Rain = 0
KOD1 210058Z 14012KT 35/25 A2965 RMK A01 T03480248  RH  056%=      5-min Rain = 0
KOD1 210059Z 14013KT 35/25 A2965 RMK A01 T03470249  RH  057%=      5-min Rain = 0
KOD1 210100Z 14014KT 35/25 A2965 RMK A01 T03460248  RH  057%=      5-min Rain = 0
KOD1 210101Z 14013KT 35/25 A2965 RMK A01 T03460248  RH  057%=      5-min Rain = 0
KOD1 210102Z 14013KT 35/25 A2965 RMK A01 T03460248  RH  057%=      5-min Rain = 0
KOD1 210103Z 14011KT 35/25 A2965 RMK A01 T03450249  RH  057%=      5-min Rain = 0
KOD1 210104Z 14012KT 35/25 A2965 RMK A01 T03450248  RH  057%=      5-min Rain = 0
KOD1 210105Z 14011KT 35/25 A2965 RMK A01 T03450248  RH  057%=      5-min Rain = 0
KOD1 210106Z 14013KT 35/25 A2965 RMK A01 T03450247  RH  057%=      5-min Rain = 0
KOD1 210107Z 14013KT 35/25 A2965 RMK A01 T03450247  RH  057%=      5-min Rain = 0
KOD1 210108Z 14013KT 34/25 A2965 RMK A01 T03440247  RH  057%=      5-min Rain = 0
KOD1 210109Z 14013KT 34/25 A2965 RMK A01 T03430247  RH  057%=      5-min Rain = 0
KOD1 210110Z 14012KT 34/25 A2965 RMK A01 T03430248  RH  058%=      5-min Rain = 0
KOD1 210111Z 13011KT 34/25 A2964 RMK A01 T03420248  RH  058%=      5-min Rain = 0
KOD1 210112Z 14010KT 34/25 A2964 RMK A01 T03410249  RH  059%=      5-min Rain = 0
KOD1 210113Z 13011KT 34/25 A2965 RMK A01 T03410250  RH  059%=      5-min Rain = 0
KOD1 210114Z 14014KT 34/25 A2965 RMK A01 T03400249  RH  059%=      5-min Rain = 0
KOD1 210115Z 14012KT 34/25 A2965 RMK A01 T03390249  RH  059%=      5-min Rain = 0
KOD1 210116Z 14013KT 34/25 A2965 RMK A01 T03390249  RH  059%=      5-min Rain = 0
KOD1 210117Z 14015KT 34/25 A2965 RMK A01 T03390249  RH  060%=      5-min Rain = 0
KOD1 210118Z 14012KT 34/25 A2965 RMK A01 T03390249  RH  060%=      5-min Rain = 0
KOD1 210119Z 14012KT 34/25 A2965 RMK A01 T03380249  RH  060%=      5-min Rain = 0
KOD1 210120Z 14013KT 34/25 A2965 RMK A01 T03370248  RH  060%=      5-min Rain = 0
KOD1 210121Z 14013KT 34/25 A2965 RMK A01 T03370248  RH  060%=      5-min Rain = 0
KOD1 210122Z 14011KT 34/25 A2965 RMK A01 T03360248  RH  060%=      5-min Rain = 0
KOD1 210123Z 14011KT 34/25 A2965 RMK A01 T03360248  RH  060%=      5-min Rain = 0
KOD1 210124Z 14012KT 34/25 A2965 RMK A01 T03350248  RH  060%=      5-min Rain = 0
KOD1 210125Z 14014KT 34/25 A2965 RMK A01 T03350247  RH  060%=      5-min Rain = 0
KOD1 210126Z 14013KT 34/25 A2965 RMK A01 T03350247  RH  060%=      5-min Rain = 0
KOD1 210127Z 14012KT 33/25 A2965 RMK A01 T03340247  RH  060%=      5-min Rain = 0
KOD1 210128Z 15012KT 33/25 A2965 RMK A01 T03330247  RH  061%=      5-min Rain = 0
KOD1 210129Z 15013KT 33/25 A2965 RMK A01 T03330246  RH  060%=      5-min Rain = 0
KOD1 210130Z 14013KT 33/25 A2965 RMK A01 T03340246  RH  060%=      5-min Rain = 0
KOD1 210131Z 14013KT 33/25 A2965 RMK A01 T03340246  RH  060%=      5-min Rain = 0
KOD1 210132Z 14011KT 33/25 A2965 RMK A01 T03330245  RH  060%=      5-min Rain = 0
KOD1 210133Z 14013G18KT 33/25 A2965 RMK A01 T03330245  RH  060%=      5-min Rain = 0
KOD1 210134Z 14012KT 33/25 A2965 RMK A01 T03330245  RH  060%=      5-min Rain = 0
KOD1 210135Z 14012KT 33/25 A2965 RMK A01 T03320245  RH  060%=      5-min Rain = 0
KOD1 210136Z 15011KT 33/24 A2965 RMK A01 T03320244  RH  060%=      5-min Rain = 0
KOD1 210137Z 15013KT 33/24 A2965 RMK A01 T03310244  RH  060%=      5-min Rain = 0
KOD1 210138Z 14014KT 33/24 A2965 RMK A01 T03310244  RH  060%=      5-min Rain = 0
KOD1 210139Z 14012KT 33/24 A2965 RMK A01 T03310244  RH  060%=      5-min Rain = 0
KOD1 210140Z 15017KT 33/24 A2965 RMK A01 T03310243  RH  060%=      5-min Rain = 0
KOD1 210141Z 15015KT 33/24 A2965 RMK A01 T03320243  RH  060%=      5-min Rain = 0
KOD1 210142Z 14012KT 33/24 A2965 RMK A01 T03310243  RH  060%=      5-min Rain = 0
KOD1 210143Z 14014KT 33/24 A2965 RMK A01 T03310243  RH  060%=      5-min Rain = 0
KOD1 210144Z 15014G19KT 33/24 A2965 RMK A01 T03300243  RH  060%=      5-min Rain = 0
KOD1 210145Z 14014KT 33/24 A2965 RMK A01 T03300242  RH  060%=      5-min Rain = 0
KOD1 210146Z 14012KT 33/24 A2965 RMK A01 T03300242  RH  060%=      5-min Rain = 0
KOD1 210147Z 14012KT 33/24 A2965 RMK A01 T03280242  RH  061%=      5-min Rain = 0
KOD1 210148Z 15013KT 33/24 A2965 RMK A01 T03280241  RH  061%=      5-min Rain = 0
KOD1 210149Z 14012KT 33/24 A2965 RMK A01 T03280242  RH  061%=      5-min Rain = 0
KOD1 210150Z 15014KT 33/24 A2965 RMK A01 T03270241  RH  060%=      5-min Rain = 0
KOD1 210151Z 14013KT 33/24 A2965 RMK A01 T03280241  RH  060%=      5-min Rain = 0
KOD1 210152Z 14013KT 33/24 A2965 RMK A01 T03270241  RH  061%=      5-min Rain = 0
KOD1 210153Z 14014KT 33/24 A2965 RMK A01 T03270241  RH  060%=      5-min Rain = 0
KOD1 210154Z 14012KT 33/24 A2965 RMK A01 T03270241  RH  061%=      5-min Rain = 0
KOD1 210155Z 14011KT 33/24 A2965 RMK A01 T03260241  RH  061%=      5-min Rain = 0
KOD1 210156Z 14013KT 33/24 A2965 RMK A01 T03250241  RH  061%=      5-min Rain = 0
KOD1 210157Z 14011KT 33/24 A2965 RMK A01 T03250241  RH  061%=      5-min Rain = 0
KOD1 210158Z 14012KT 32/24 A2965 RMK A01 T03240240  RH  061%=      5-min Rain = 0
KOD1 210159Z 14014KT 32/24 A2965 RMK A01 T03240240  RH  061%=      5-min Rain = 0
KOD1 210200Z 14012KT 32/24 A2965 RMK A01 T03240240  RH  061%=      5-min Rain = 0
KOD1 210201Z 14013KT 32/24 A2965 RMK A01 T03240240  RH  061%=      5-min Rain = 0
KOD1 210202Z 14012KT 32/24 A2965 RMK A01 T03240240  RH  061%=      5-min Rain = 0
KOD1 210203Z 14013KT 32/24 A2965 RMK A01 T03230240  RH  061%=      5-min Rain = 0
KOD1 210204Z 14013KT 32/24 A2965 RMK A01 T03230240  RH  062%=      5-min Rain = 0
KOD1 210205Z 14013KT 32/24 A2965 RMK A01 T03230240  RH  062%=      5-min Rain = 0
KOD1 210206Z 14012KT 32/24 A2965 RMK A01 T03230240  RH  062%=      5-min Rain = 0
KOD1 210207Z 15011KT 32/24 A2965 RMK A01 T03230240  RH  062%=      5-min Rain = 0
KOD1 210208Z 14014KT 32/24 A2965 RMK A01 T03220240  RH  062%=      5-min Rain = 0
KOD1 210209Z 14013G19KT 32/24 A2965 RMK A01 T03220240  RH  062%=      5-min Rain = 0
KOD1 210210Z 14014KT 32/24 A2965 RMK A01 T03220239  RH  062%=      5-min Rain = 0
KOD1 210211Z 14014KT 32/24 A2965 RMK A01 T03220240  RH  062%=      5-min Rain = 0
KOD1 210212Z 14013KT 32/24 A2965 RMK A01 T03220240  RH  062%=      5-min Rain = 0
KOD1 210213Z 14013KT 32/24 A2965 RMK A01 T03220240  RH  062%=      5-min Rain = 0
KOD1 210214Z 14012KT 32/24 A2965 RMK A01 T03210240  RH  062%=      5-min Rain = 0
KOD1 210215Z 14012KT 32/24 A2965 RMK A01 T03200240  RH  063%=      5-min Rain = 0
KOD1 210216Z 14013KT 32/24 A2965 RMK A01 T03200240  RH  063%=      5-min Rain = 0
KOD1 210217Z 14012KT 32/24 A2965 RMK A01 T03200240  RH  063%=      5-min Rain = 0
KOD1 210218Z 14014G19KT 32/24 A2966 RMK A01 T03190240  RH  063%=      5-min Rain = 0
KOD1 210219Z 14014KT 32/24 A2966 RMK A01 T03200240  RH  063%=      5-min Rain = 0
KOD1 210220Z 14014KT 32/24 A2966 RMK A01 T03200240  RH  063%=      5-min Rain = 0
KOD1 210221Z 15014KT 32/24 A2966 RMK A01 T03200240  RH  063%=      5-min Rain = 0
KOD1 210222Z 14012KT 32/24 A2965 RMK A01 T03200241  RH  063%=      5-min Rain = 0
KOD1 210223Z 14013KT 32/24 A2966 RMK A01 T03190241  RH  063%=      5-min Rain = 0
KOD1 210224Z 15013KT 32/24 A2966 RMK A01 T03180241  RH  064%=      5-min Rain = 0
KOD1 210225Z 14012KT 32/24 A2966 RMK A01 T03180241  RH  064%=      5-min Rain = 0
KOD1 210226Z 14013KT 32/24 A2966 RMK A01 T03180241  RH  064%=      5-min Rain = 0
KOD1 210227Z 14013KT 32/24 A2966 RMK A01 T03180241  RH  064%=      5-min Rain = 0
KOD1 210228Z 14012KT 32/24 A2966 RMK A01 T03180241  RH  064%=      5-min Rain = 0
KOD1 210229Z 14012KT 32/24 A2966 RMK A01 T03170241  RH  064%=      5-min Rain = 0
KOD1 210230Z 14012KT 32/24 A2966 RMK A01 T03170242  RH  064%=      5-min Rain = 0
KOD1 210231Z 15014KT 32/24 A2966 RMK A01 T03160241  RH  065%=      5-min Rain = 0
KOD1 210232Z 14015KT 32/24 A2966 RMK A01 T03170241  RH  064%=      5-min Rain = 0
KOD1 210233Z 14013KT 32/24 A2966 RMK A01 T03180242  RH  064%=      5-min Rain = 0
KOD1 210234Z 15012KT 32/24 A2966 RMK A01 T03170242  RH  065%=      5-min Rain = 0
KOD1 210235Z 15012KT 32/24 A2966 RMK A01 T03150242  RH  065%=      5-min Rain = 0
KOD1 210236Z 14012KT 32/24 A2966 RMK A01 T03150242  RH  065%=      5-min Rain = 0
KOD1 210237Z 14011KT 32/24 A2966 RMK A01 T03150243  RH  065%=      5-min Rain = 0
KOD1 210238Z 14013KT 31/24 A2966 RMK A01 T03140242  RH  065%=      5-min Rain = 0
KOD1 210239Z 14012KT 32/24 A2966 RMK A01 T03150243  RH  065%=      5-min Rain = 0
KOD1 210240Z 14014KT 32/24 A2966 RMK A01 T03150242  RH  066%=      5-min Rain = 0
KOD1 210241Z 14012KT 32/24 A2966 RMK A01 T03150242  RH  065%=      5-min Rain = 0
KOD1 210242Z 15013KT 32/24 A2966 RMK A01 T03150243  RH  066%=      5-min Rain = 0
KOD1 210243Z 14012KT 31/24 A2966 RMK A01 T03140242  RH  066%=      5-min Rain = 0
KOD1 210244Z 14013KT 31/24 A2966 RMK A01 T03140242  RH  066%=      5-min Rain = 0
KOD1 210245Z 15012KT 31/24 A2966 RMK A01 T03140243  RH  066%=      5-min Rain = 0
KOD1 210246Z 15013KT 31/24 A2966 RMK A01 T03140243  RH  066%=      5-min Rain = 0
KOD1 210247Z 15014KT 31/24 A2966 RMK A01 T03140242  RH  066%=      5-min Rain = 0
KOD1 210248Z 15014KT 31/24 A2966 RMK A01 T03140243  RH  066%=      5-min Rain = 0
KOD1 210249Z 15015KT 31/24 A2966 RMK A01 T03140242  RH  066%=      5-min Rain = 0
KOD1 210250Z 15015KT 31/24 A2966 RMK A01 T03140243  RH  066%=      5-min Rain = 0
KOD1 210251Z 15014KT 32/24 A2966 RMK A01 T03150242  RH  066%=      5-min Rain = 0
KOD1 210252Z 15011KT 31/24 A2966 RMK A01 T03140243  RH  066%=      5-min Rain = 0
KOD1 210253Z 14014KT 31/24 A2966 RMK A01 T03130243  RH  066%=      5-min Rain = 0
KOD1 210254Z 14014KT 31/24 A2966 RMK A01 T03130242  RH  066%=      5-min Rain = 0
KOD1 210255Z 15015KT 31/24 A2966 RMK A01 T03130243  RH  066%=      5-min Rain = 0
KOD1 210256Z 14015KT 31/24 A2966 RMK A01 T03140242  RH  066%=      5-min Rain = 0
KOD1 210257Z 14013KT 31/24 A2966 RMK A01 T03140243  RH  066%=      5-min Rain = 0
KOD1 210258Z 14014KT 31/24 A2966 RMK A01 T03130243  RH  066%=      5-min Rain = 0
KOD1 210259Z 14013KT 31/24 A2966 RMK A01 T03120243  RH  067%=      5-min Rain = 0
KOD1 210300Z 14013KT 31/24 A2966 RMK A01 T03120242  RH  067%=      5-min Rain = 0
KOD1 210301Z 14014KT 31/24 A2966 RMK A01 T03110242  RH  067%=      5-min Rain = 0
KOD1 210302Z 15014KT 31/24 A2967 RMK A01 T03110242  RH  067%=      5-min Rain = 0
KOD1 210303Z 15015G20KT 31/24 A2966 RMK A01 T03120242  RH  066%=      5-min Rain = 0
KOD1 210304Z 15013KT 31/24 A2967 RMK A01 T03130242  RH  066%=      5-min Rain = 0
KOD1 210305Z 14012KT 31/24 A2967 RMK A01 T03120242  RH  066%=      5-min Rain = 0
KOD1 210306Z 14014KT 31/24 A2967 RMK A01 T03110242  RH  067%=      5-min Rain = 0
KOD1 210307Z 14012KT 31/24 A2967 RMK A01 T03110242  RH  067%=      5-min Rain = 0
KOD1 210308Z 14014KT 31/24 A2967 RMK A01 T03100242  RH  067%=      5-min Rain = 0
KOD1 210309Z 14012KT 31/24 A2967 RMK A01 T03100242  RH  067%=      5-min Rain = 0
KOD1 210310Z 15012KT 31/24 A2967 RMK A01 T03100242  RH  067%=      5-min Rain = 0
KOD1 210311Z 14014KT 31/24 A2967 RMK A01 T03080242  RH  068%=      5-min Rain = 0
KOD1 210312Z 14014G20KT 31/24 A2967 RMK A01 T03090241  RH  067%=      5-min Rain = 0
KOD1 210313Z 15013KT 31/24 A2967 RMK A01 T03100242  RH  067%=      5-min Rain = 0
KOD1 210314Z 15014KT 31/24 A2967 RMK A01 T03090242  RH  067%=      5-min Rain = 0
KOD1 210315Z 15015KT 31/24 A2967 RMK A01 T03090241  RH  067%=      5-min Rain = 0
KOD1 210316Z 15016KT 31/24 A2967 RMK A01 T03100241  RH  067%=      5-min Rain = 0
KOD1 210317Z 14015KT 31/24 A2967 RMK A01 T03100240  RH  066%=      5-min Rain = 0
KOD1 210318Z 14014KT 31/24 A2967 RMK A01 T03100241  RH  067%=      5-min Rain = 0
KOD1 210319Z 15013KT 31/24 A2967 RMK A01 T03090241  RH  067%=      5-min Rain = 0
KOD1 210320Z 14013KT 31/24 A2967 RMK A01 T03090241  RH  067%=      5-min Rain = 0
KOD1 210321Z 14015KT 31/24 A2967 RMK A01 T03080241  RH  067%=      5-min Rain = 0
KOD1 210322Z 15015KT 31/24 A2967 RMK A01 T03080240  RH  067%=      5-min Rain = 0
KOD1 210323Z 15013KT 31/24 A2967 RMK A01 T03090240  RH  067%=      5-min Rain = 0
KOD1 210324Z 14014KT 31/24 A2967 RMK A01 T03080240  RH  067%=      5-min Rain = 0
KOD1 210325Z 15014KT 31/24 A2967 RMK A01 T03080240  RH  067%=      5-min Rain = 0
KOD1 210326Z 14013KT 31/24 A2967 RMK A01 T03070241  RH  068%=      5-min Rain = 0
KOD1 210327Z 15014KT 31/24 A2967 RMK A01 T03070241  RH  068%=      5-min Rain = 0
KOD1 210328Z 14015KT 31/24 A2967 RMK A01 T03070241  RH  068%=      5-min Rain = 0
KOD1 210329Z 15017KT 31/24 A2967 RMK A01 T03080240  RH  067%=      5-min Rain = 0
KOD1 210330Z 15016KT 31/24 A2967 RMK A01 T03080240  RH  067%=      5-min Rain = 0
KOD1 210331Z 14016KT 31/24 A2967 RMK A01 T03090241  RH  067%=      5-min Rain = 0
KOD1 210332Z 14015KT 31/24 A2967 RMK A01 T03090241  RH  067%=      5-min Rain = 0
KOD1 210333Z 14016KT 31/24 A2967 RMK A01 T03090241  RH  067%=      5-min Rain = 0
KOD1 210334Z 15014KT 31/24 A2967 RMK A01 T03080242  RH  068%=      5-min Rain = 0
KOD1 210335Z 14015KT 31/24 A2967 RMK A01 T03070241  RH  068%=      5-min Rain = 0
KOD1 210336Z 15015KT 31/24 A2967 RMK A01 T03070241  RH  068%=      5-min Rain = 0
KOD1 210337Z 15016KT 31/24 A2967 RMK A01 T03070241  RH  068%=      5-min Rain = 0
KOD1 210338Z 14016KT 31/24 A2967 RMK A01 T03070241  RH  068%=      5-min Rain = 0
KOD1 210339Z 14017KT 31/24 A2967 RMK A01 T03070241  RH  068%=      5-min Rain = 0
KOD1 210340Z 15017G22KT 31/24 A2967 RMK A01 T03080241  RH  068%=      5-min Rain = 0
KOD1 210341Z 15017KT 31/24 A2967 RMK A01 T03080240  RH  067%=      5-min Rain = 0
KOD1 210342Z 15016G21KT 31/24 A2968 RMK A01 T03080240  RH  067%=      5-min Rain = 0
KOD1 210343Z 15014KT 31/24 A2968 RMK A01 T03070241  RH  068%=      5-min Rain = 0
KOD1 210344Z 15016KT 31/24 A2968 RMK A01 T03060241  RH  068%=      5-min Rain = 0
KOD1 210345Z 15015KT 31/24 A2968 RMK A01 T03060240  RH  068%=      5-min Rain = 0
KOD1 210346Z 15015KT 31/24 A2968 RMK A01 T03050240  RH  068%=      5-min Rain = 0
KOD1 210347Z 15014KT 31/24 A2968 RMK A01 T03050240  RH  068%=      5-min Rain = 0
KOD1 210348Z 15016KT 30/24 A2968 RMK A01 T03040240  RH  069%=      5-min Rain = 0
KOD1 210349Z 15014KT 30/24 A2968 RMK A01 T03040240  RH  069%=      5-min Rain = 0
KOD1 210350Z 15014KT 30/24 A2968 RMK A01 T03030240  RH  069%=      5-min Rain = 0
KOD1 210351Z 15014KT 30/24 A2968 RMK A01 T03030240  RH  069%=      5-min Rain = 0
KOD1 210352Z 15014KT 30/24 A2968 RMK A01 T03030240  RH  069%=      5-min Rain = 0
KOD1 210353Z 15013KT 30/24 A2968 RMK A01 T03020240  RH  070%=      5-min Rain = 0
KOD1 210354Z 15015KT 30/24 A2968 RMK A01 T03010240  RH  070%=      5-min Rain = 0
KOD1 210355Z 15015KT 30/24 A2968 RMK A01 T03020240  RH  070%=      5-min Rain = 0
KOD1 210356Z 15014KT 30/24 A2968 RMK A01 T03020240  RH  069%=      5-min Rain = 0
KOD1 210357Z 15015KT 30/24 A2968 RMK A01 T03020240  RH  070%=      5-min Rain = 0
KOD1 210358Z 15014KT 30/24 A2968 RMK A01 T03020241  RH  070%=      5-min Rain = 0
KOD1 210359Z 14014KT 30/24 A2968 RMK A01 T03020241  RH  070%=      5-min Rain = 0
KOD1 210400Z 14015KT 30/24 A2968 RMK A01 T03020240  RH  070%=      5-min Rain = 0
KOD1 210401Z 15014KT 30/24 A2968 RMK A01 T03030240  RH  069%=      5-min Rain = 0
KOD1 210402Z 15014KT 30/24 A2968 RMK A01 T03030241  RH  070%=      5-min Rain = 0
KOD1 210403Z 14013KT 30/24 A2968 RMK A01 T03020241  RH  070%=      5-min Rain = 0
KOD1 210404Z 14014KT 30/24 A2968 RMK A01 T03020241  RH  070%=      5-min Rain = 0
KOD1 210405Z 15014KT 30/24 A2968 RMK A01 T03020241  RH  070%=      5-min Rain = 0
KOD1 210406Z 14015KT 30/24 A2968 RMK A01 T03010241  RH  070%=      5-min Rain = 0
KOD1 210407Z 15015KT 30/24 A2968 RMK A01 T03020242  RH  070%=      5-min Rain = 0
KOD1 210408Z 14016G22KT 30/24 A2968 RMK A01 T03020242  RH  070%=      5-min Rain = 0
KOD1 210409Z 14016G22KT 30/24 A2968 RMK A01 T03030242  RH  070%=      5-min Rain = 0
KOD1 210410Z 15014KT 30/24 A2968 RMK A01 T03030242  RH  070%=      5-min Rain = 0
KOD1 210411Z 14016KT 30/24 A2968 RMK A01 T03020242  RH  070%=      5-min Rain = 0
KOD1 210412Z 15015KT 30/24 A2968 RMK A01 T03010242  RH  071%=      5-min Rain = 0
KOD1 210413Z 14015KT 30/24 A2968 RMK A01 T03010242  RH  071%=      5-min Rain = 0
KOD1 210414Z 14017KT 30/24 A2968 RMK A01 T03010242  RH  071%=      5-min Rain = 0
KOD1 210415Z 15016KT 30/24 A2968 RMK A01 T03020242  RH  070%=      5-min Rain = 0
KOD1 210416Z 14016KT 30/24 A2968 RMK A01 T03020242  RH  070%=      5-min Rain = 0
KOD1 210417Z 15017KT 30/24 A2968 RMK A01 T03020242  RH  070%=      5-min Rain = 0
KOD1 210418Z 15017KT 30/24 A2968 RMK A01 T03030242  RH  070%=      5-min Rain = 0
KOD1 210419Z 15018KT 30/24 A2968 RMK A01 T03030242  RH  070%=      5-min Rain = 0
KOD1 210420Z 15015G21KT 30/24 A2968 RMK A01 T03040243  RH  070%=      5-min Rain = 0
KOD1 210421Z 15017KT 30/24 A2968 RMK A01 T03020242  RH  070%=      5-min Rain = 0
KOD1 210422Z 15017KT 30/24 A2968 RMK A01 T03010242  RH  071%=      5-min Rain = 0
KOD1 210423Z 15016KT 30/24 A2968 RMK A01 T03010242  RH  070%=      5-min Rain = 0
KOD1 210424Z 15015KT 30/24 A2968 RMK A01 T03010242  RH  071%=      5-min Rain = 0
KOD1 210425Z 15016KT 30/24 A2968 RMK A01 T03010242  RH  071%=      5-min Rain = 0
KOD1 210426Z 15018KT 30/24 A2968 RMK A01 T03010241  RH  070%=      5-min Rain = 0
KOD1 210427Z 15016KT 30/24 A2968 RMK A01 T03020241  RH  070%=      5-min Rain = 0
KOD1 210428Z 15016KT 30/24 A2968 RMK A01 T03020241  RH  070%=      5-min Rain = 0
KOD1 210429Z 15016KT 30/24 A2968 RMK A01 T03010241  RH  070%=      5-min Rain = 0
KOD1 210430Z 15015KT 30/24 A2968 RMK A01 T03000241  RH  071%=      5-min Rain = 0
KOD1 210431Z 15016KT 30/24 A2968 RMK A01 T03000241  RH  071%=      5-min Rain = 0
KOD1 210432Z 15015KT 30/24 A2968 RMK A01 T03000241  RH  071%=      5-min Rain = 0
KOD1 210433Z 15015KT 30/24 A2968 RMK A01 T03000241  RH  071%=      5-min Rain = 0
KOD1 210434Z 15015G20KT 30/24 A2968 RMK A01 T02990241  RH  071%=      5-min Rain = 0
KOD1 210435Z 15015KT 30/24 A2968 RMK A01 T03000240  RH  070%=      5-min Rain = 0
KOD1 210436Z 15016KT 30/24 A2968 RMK A01 T03000240  RH  070%=      5-min Rain = 0
KOD1 210437Z 16014KT 30/24 A2968 RMK A01 T03000240  RH  070%=      5-min Rain = 0
KOD1 210438Z 15016KT 30/24 A2968 RMK A01 T02990240  RH  070%=      5-min Rain = 0
KOD1 210439Z 15016KT 30/24 A2968 RMK A01 T02990240  RH  070%=      5-min Rain = 0
KOD1 210440Z 15016KT 30/24 A2968 RMK A01 T02990239  RH  070%=      5-min Rain = 0
KOD1 210441Z 15019KT 30/24 A2968 RMK A01 T03000239  RH  070%=      5-min Rain = 0
KOD1 210442Z 15017KT 30/24 A2968 RMK A01 T03010239  RH  070%=      5-min Rain = 0
KOD1 210443Z 15017KT 30/24 A2968 RMK A01 T03000239  RH  070%=      5-min Rain = 0
KOD1 210444Z 15016KT 30/24 A2968 RMK A01 T03000239  RH  070%=      5-min Rain = 0
KOD1 210445Z 15017KT 30/24 A2968 RMK A01 T02990239  RH  070%=      5-min Rain = 0
KOD1 210446Z 16017KT 30/24 A2968 RMK A01 T03000238  RH  070%=      5-min Rain = 0
KOD1 210447Z 16015G20KT 30/24 A2968 RMK A01 T02990239  RH  070%=      5-min Rain = 0
KOD1 210448Z 16018KT 30/24 A2968 RMK A01 T02990239  RH  070%=      5-min Rain = 0
KOD1 210449Z 15017KT 30/24 A2968 RMK A01 T02990239  RH  070%=      5-min Rain = 0
KOD1 210450Z 15018KT 30/24 A2968 RMK A01 T02980238  RH  070%=      5-min Rain = 0
KOD1 210451Z 15017KT 30/24 A2968 RMK A01 T02980238  RH  070%=      5-min Rain = 0
KOD1 210452Z 16017KT 30/24 A2968 RMK A01 T02980238  RH  070%=      5-min Rain = 0
KOD1 210453Z 15017KT 30/24 A2968 RMK A01 T02980238  RH  070%=      5-min Rain = 0
KOD1 210454Z 16015KT 30/24 A2968 RMK A01 T02970238  RH  071%=      5-min Rain = 0
KOD1 210455Z 15017KT 30/24 A2968 RMK A01 T02970238  RH  071%=      5-min Rain = 0
KOD1 210456Z 16017KT 30/24 A2968 RMK A01 T02970238  RH  070%=      5-min Rain = 0
KOD1 210457Z 15015KT 30/24 A2968 RMK A01 T02970239  RH  071%=      5-min Rain = 0
KOD1 210458Z 15016KT 30/24 A2968 RMK A01 T02970239  RH  071%=      5-min Rain = 0
KOD1 210459Z 15015KT 30/24 A2968 RMK A01 T02960239  RH  071%=      5-min Rain = 0

Page generated in 0.034 seconds.